M I D A S
Marine Information and Data Acquisition System
Tripno 664 of the Zeeleeuw from 2004-03-10 07:42:12 to 2004-03-10 18:44:59
Back to CruiseResearch ActivitiesStationsMapUnderway DataData graphs

EquipmentUnitsComment
TimeDGPSUTC
LatitudeDGPSDM.mWGS84
LongitudeDGPSDM.mWGS84
TemperatureSBE03/SBE38deg celciusITS90
ConductivitySBE21S/mITS90
SalinitySBE21 Practical Salinity Units
ChlorophylAChelsea fluorimeterg/lCalibrated in Aceton
Missing or incorrect values are displayed as -999
Sea surface data collected by the RV Zeeleeuw from 2004-03-10 07:42:12 to 2004-03-10 18:44:59
                                                                                    Next 1000 lines
Time Latitude Longitude Temperature Conductivity Salinity ChlorophylA
2004-03-10 07:42:20 51°13.59 2°56.107 12.187681 0.011209 0.068751 -0.343027
2004-03-10 07:42:26 51°13.59 2°56.107 12.187681 0.011209 0.068751 -0.343027
2004-03-10 07:42:30 51°13.59 2°56.107 12.168488 0.011209 0.068751 -0.343027
2004-03-10 07:42:34 51°13.59 2°56.107 12.166945 0.011209 0.068751 -0.343027
2004-03-10 07:42:40 51°13.59 2°56.107 12.059758 0.011209 0.068749 -0.343027
2004-03-10 07:42:46 51°13.59 2°56.106 12.060167 0.011209 0.068749 -0.376736
2004-03-10 07:42:50 51°13.59 2°56.106 11.969923 0.011209 0.068748 -0.343027
2004-03-10 07:42:54 51°13.59 2°56.105 11.969923 0.011209 0.068748 -0.343027
2004-03-10 07:43:00 51°13.59 2°56.102 11.986443 0.011209 0.068748 -0.343027
2004-03-10 07:43:06 51°13.591 2°56.098 11.885891 0.011209 0.068748 -0.376736
2004-03-10 07:43:10 51°13.592 2°56.094 12.065121 0.011209 0.068747 -0.376736
2004-03-10 07:43:16 51°13.594 2°56.088 12.067712 0.011209 0.06875 -0.376736
2004-03-10 07:43:20 51°13.595 2°56.084 12.055666 0.011209 0.068752 -0.376736
2004-03-10 07:43:26 51°13.597 2°56.076 12.055666 0.011209 0.068752 -0.376736
2004-03-10 07:43:31 51°13.599 2°56.07 12.044665 0.011209 0.068751 -0.376736
2004-03-10 07:43:36 51°13.6 2°56.063 12.063848 0.011209 0.068751 -0.376736
2004-03-10 07:43:40 51°13.602 2°56.057 12.069075 0.011209 0.068752 -0.376736
2004-03-10 07:43:46 51°13.604 2°56.048 12.054985 0.011209 0.068752 -0.343027
2004-03-10 07:43:51 51°13.605 2°56.04 12.106878 0.011209 0.068753 -0.376736
2004-03-10 07:43:56 51°13.607 2°56.031 12.106878 0.011209 0.068753 -0.376736
2004-03-10 07:44:01 51°13.609 2°56.023 12.094204 0.011209 0.068753 -0.376736
2004-03-10 07:44:06 51°13.612 2°56.014 12.076165 0.011209 0.068753 -0.343027
2004-03-10 07:44:11 51°13.614 2°56.005 12.12123 0.011209 0.068753 -0.343027
2004-03-10 07:44:16 51°13.617 2°55.995 12.0793 0.011209 0.068752 -0.343027
2004-03-10 07:44:20 51°13.619 2°55.988 12.091886 0.011209 0.068753 -0.343027
2004-03-10 07:44:26 51°13.623 2°55.976 12.091886 0.011209 0.068753 -0.343027
2004-03-10 07:44:31 51°13.626 2°55.966 12.084708 0.011209 0.068753 -0.376736
2004-03-10 07:44:36 51°13.63 2°55.956 12.192172 0.011209 0.068754 -0.343027
2004-03-10 07:44:41 51°13.633 2°55.946 12.16572 0.011209 0.068754 -0.376736
2004-03-10 07:44:46 51°13.636 2°55.935 12.183961 0.011209 0.068755 -0.376736
2004-03-10 07:44:51 51°13.64 2°55.925 12.178244 0.011209 0.068755 -0.376736
2004-03-10 07:44:56 51°13.644 2°55.915 12.178244 0.011209 0.068755 -0.376736
2004-03-10 07:45:01 51°13.647 2°55.904 12.157959 0.011209 0.068754 -0.376736
2004-03-10 07:45:06 51°13.651 2°55.893 12.145657 0.011209 0.068754 -0.376736
2004-03-10 07:45:11 51°13.654 2°55.883 12.121139 0.011209 0.068754 -0.376736
2004-03-10 07:45:16 51°13.658 2°55.872 12.122683 0.011209 0.068753 -0.410446
2004-03-10 07:45:21 51°13.661 2°55.861 12.125135 0.011209 0.068754 -0.343027
2004-03-10 07:45:26 51°13.664 2°55.85 12.125135 0.011209 0.068754 -0.343027
2004-03-10 07:45:31 51°13.667 2°55.839 12.108695 0.011209 0.068754 -0.376736
2004-03-10 07:45:36 51°13.67 2°55.827 12.135533 0.011209 0.068754 -0.343027
2004-03-10 07:45:41 51°13.672 2°55.815 12.106469 0.011209 0.068754 -0.376736
2004-03-10 07:45:46 51°13.674 2°55.804 12.108831 0.011209 0.068753 -0.343027
2004-03-10 07:45:51 51°13.676 2°55.792 12.112147 0.011209 0.068753 -0.343027
2004-03-10 07:45:56 51°13.677 2°55.781 12.112147 0.011209 0.068753 -0.343027
2004-03-10 07:46:00 51°13.678 2°55.772 12.166491 0.011209 0.068754 -0.376736
2004-03-10 07:46:06 51°13.679 2°55.761 12.128405 0.011209 0.068753 -0.343027
2004-03-10 07:46:11 51°13.68 2°55.754 12.253794 0.011209 0.068754 -0.343027
2004-03-10 07:46:16 51°13.68 2°55.749 12.177609 0.011209 0.068752 -0.376736
2004-03-10 07:46:20 51°13.681 2°55.746 12.295251 0.011209 0.068754 -0.343027
2004-03-10 07:46:26 51°13.681 2°55.744 12.295251 0.011209 0.068754 -0.343027
2004-03-10 07:46:30 51°13.682 2°55.743 12.235663 0.011209 0.068754 -0.376736
2004-03-10 07:46:35 51°13.682 2°55.743 12.186139 0.011209 0.068754 -0.376736
2004-03-10 07:46:40 51°13.683 2°55.744 12.284334 0.011209 0.068755 -0.376736
2004-03-10 07:46:46 51°13.686 2°55.746 12.258643 0.011209 0.068756 -0.343027
2004-03-10 07:46:50 51°13.688 2°55.748 12.277357 0.011209 0.068756 -0.376736
2004-03-10 07:46:55 51°13.69 2°55.75 12.277357 0.011209 0.068756 -0.376736
2004-03-10 07:47:00 51°13.694 2°55.752 12.278445 0.011209 0.068756 -0.376736
2004-03-10 07:47:05 51°13.697 2°55.753 12.268069 0.011209 0.068755 -0.410446
2004-03-10 07:47:10 51°13.701 2°55.754 12.245318 0.011209 0.068755 -0.376736
2004-03-10 07:47:12 51°13.703 2°55.754 12.233305 0.011209 0.068756 -0.343027
2004-03-10 07:47:20 51°13.709 2°55.753 12.1875 0.011209 0.068756 -0.376736
2004-03-10 07:47:26 51°13.714 2°55.751 12.1875 0.011209 0.068756 -0.376736
2004-03-10 07:47:30 51°13.718 2°55.749 12.161227 0.011209 0.068756 -0.343027
2004-03-10 07:47:34 51°13.722 2°55.747 12.196845 0.011209 0.068756 -0.376736
2004-03-10 07:47:40 51°13.728 2°55.742 12.271059 0.011209 0.068756 -0.343027
2004-03-10 07:47:44 51°13.731 2°55.737 12.207594 0.011209 0.068757 -0.343027
2004-03-10 07:47:50 51°13.738 2°55.73 12.109694 0.011209 0.068757 -0.343027
2004-03-10 07:47:56 51°13.744 2°55.723 12.109694 0.011209 0.068757 -0.343027
2004-03-10 07:48:00 51°13.748 2°55.718 12.068303 0.011209 0.068755 -0.376736
2004-03-10 07:48:06 51°13.754 2°55.709 12.082708 0.011209 0.068754 -0.376736
2004-03-10 07:48:10 51°13.759 2°55.704 12.015197 0.011209 0.068753 -0.376736
2004-03-10 07:48:16 51°13.766 2°55.695 12.001731 0.011209 0.068753 -0.343027
2004-03-10 07:48:20 51°13.771 2°55.688 11.97898 0.011209 0.068752 -0.343027
2004-03-10 07:48:26 51°13.78 2°55.679 11.97898 0.011209 0.068752 -0.343027
2004-03-10 07:48:30 51°13.785 2°55.673 11.972426 0.011209 0.068753 -0.376736
2004-03-10 07:48:35 51°13.793 2°55.665 11.954627 0.011209 0.068753 -0.343027
2004-03-10 07:48:40 51°13.801 2°55.657 11.935503 0.011209 0.068753 -0.376736
2004-03-10 07:48:46 51°13.81 2°55.648 11.933181 0.011209 0.068753 -0.376736
2004-03-10 07:48:50 51°13.817 2°55.642 11.922614 0.011209 0.068753 -0.376736
2004-03-10 07:48:55 51°13.826 2°55.635 11.922614 0.011209 0.068753 -0.376736
2004-03-10 07:49:00 51°13.835 2°55.627 11.924208 0.011209 0.068754 -0.343027
2004-03-10 07:49:04 51°13.842 2°55.622 11.934137 0.011209 0.068755 -0.376736
2004-03-10 07:49:10 51°13.853 2°55.614 11.941514 0.011209 0.068755 -0.376736
2004-03-10 07:49:15 51°13.862 2°55.607 12.004325 0.011209 0.068755 -0.376736
2004-03-10 07:49:20 51°13.872 2°55.599 11.984441 0.011209 0.068756 -0.376736
2004-03-10 07:49:24 51°13.879 2°55.594 11.984441 0.011209 0.068756 -0.376736
2004-03-10 07:49:30 51°13.89 2°55.585 12.002232 0.011209 0.068756 -0.376736
2004-03-10 07:49:35 51°13.9 2°55.578 11.954673 0.011209 0.068757 -0.343027
2004-03-10 07:49:40 51°13.91 2°55.571 11.971743 0.011209 0.068758 -0.343027
2004-03-10 07:49:46 51°13.922 2°55.562 11.961229 0.011209 0.068758 -0.376736
2004-03-10 07:49:50 51°13.929 2°55.556 11.928763 0.011209 0.068757 -0.376736
2004-03-10 07:49:55 51°13.94 2°55.549 11.928763 0.011209 0.068757 -0.376736
2004-03-10 07:50:00 51°13.95 2°55.542 12.012649 0.011209 0.068759 -0.343027
2004-03-10 07:50:04 51°13.959 2°55.536 11.996363 0.011209 0.068758 -0.376736
2004-03-10 07:50:10 51°13.971 2°55.528 11.977979 0.011209 0.068758 -0.376736
2004-03-10 07:50:16 51°13.983 2°55.519 11.95745 0.011209 0.068759 -0.376736
2004-03-10 07:50:20 51°13.992 2°55.514 11.998911 0.011209 0.06876 -0.376736
2004-03-10 07:50:25 51°14.002 2°55.506 11.998911 0.011209 0.06876 -0.376736
2004-03-10 07:50:30 51°14.012 2°55.5 11.986944 0.011209 0.06876 -0.376736
2004-03-10 07:50:32 51°14.016 2°55.497 12.009465 0.011209 0.06876 -0.376736
2004-03-10 07:50:40 51°14.032 2°55.485 12.02493 0.011209 0.06876 -0.410446
2004-03-10 07:50:46 51°14.044 2°55.476 12.034525 0.011209 0.068761 -0.410446
2004-03-10 07:50:50 51°14.052 2°55.47 12.011649 0.011209 0.068761 -0.376736
2004-03-10 07:50:56 51°14.064 2°55.462 12.011649 0.011209 0.068761 -0.376736
2004-03-10 07:51:00 51°14.072 2°55.456 11.959772 0.011209 0.068761 -0.343027
2004-03-10 07:51:06 51°14.084 2°55.446 12.001003 0.011209 0.068761 -0.343027
2004-03-10 07:51:10 51°14.092 2°55.44 12.024157 0.011209 0.068762 -0.410446
2004-03-10 07:51:15 51°14.102 2°55.433 11.988537 0.011209 0.068762 -0.376736
2004-03-10 07:51:20 51°14.112 2°55.425 12.020245 0.011209 0.068764 -0.376736
2004-03-10 07:51:26 51°14.124 2°55.416 12.020245 0.011209 0.068764 -0.376736
2004-03-10 07:51:30 51°14.132 2°55.409 12.030614 0.011209 0.068763 -0.376736
2004-03-10 07:51:36 51°14.145 2°55.399 12.056621 0.011209 0.068763 -0.343027
2004-03-10 07:51:40 51°14.153 2°55.392 12.04521 0.011209 0.068764 -0.376736
2004-03-10 07:51:46 51°14.165 2°55.38 12.054621 0.011209 0.068764 -0.376736
2004-03-10 07:51:50 51°14.173 2°55.372 12.057621 0.011209 0.068764 -0.343027
2004-03-10 07:51:55 51°14.184 2°55.362 12.057621 0.011209 0.068764 -0.343027
2004-03-10 07:52:00 51°14.195 2°55.351 12.08857 0.011209 0.068765 -0.376736
2004-03-10 07:52:06 51°14.208 2°55.336 12.122047 0.011209 0.068766 -0.376736
2004-03-10 07:52:10 51°14.217 2°55.326 12.11964 0.011209 0.068768 -0.376736
2004-03-10 07:52:16 51°14.231 2°55.309 12.094022 0.011209 0.068766 -0.376736
2004-03-10 07:52:20 51°14.239 2°55.297 12.108331 0.011209 0.068769 -0.376736
2004-03-10 07:52:26 51°14.253 2°55.277 12.108331 0.011209 0.068769 -0.376736
2004-03-10 07:52:30 51°14.261 2°55.264 12.118732 0.011209 0.068766 -0.410446
2004-03-10 07:52:34 51°14.27 2°55.249 12.140028 0.011209 0.068768 -0.410446
2004-03-10 07:52:40 51°14.282 2°55.226 12.087388 0.011209 0.06877 -0.410446
2004-03-10 07:52:44 51°14.291 2°55.21 11.979299 0.011209 0.068768 -0.376736
2004-03-10 07:52:50 51°14.303 2°55.186 11.927624 0.011209 0.068766 -0.376736
2004-03-10 07:52:55 51°14.313 2°55.166 11.927624 0.011209 0.068766 -0.376736
2004-03-10 07:53:00 51°14.324 2°55.145 11.855349 0.011209 0.068763 -0.376736
2004-03-10 07:53:06 51°14.336 2°55.121 11.881516 0.011209 0.068762 -0.343027
2004-03-10 07:53:10 51°14.345 2°55.104 11.871898 0.011209 0.068764 -0.376736
2004-03-10 07:53:15 51°14.355 2°55.083 11.899926 0.011209 0.068763 -0.376736
2004-03-10 07:53:20 51°14.366 2°55.062 11.989356 0.011209 0.068769 -0.376736
2004-03-10 07:53:26 51°14.378 2°55.037 11.989356 0.011209 0.068769 -0.376736
2004-03-10 07:53:30 51°14.386 2°55.019 11.922978 0.011209 0.068771 -0.376736
2004-03-10 07:53:35 51°14.396 2°54.997 12.016698 0.011209 0.068773 -0.410446
2004-03-10 07:53:40 51°14.406 2°54.975 12.043664 0.011209 0.068774 -0.376736
2004-03-10 07:53:44 51°14.413 2°54.956 11.961638 0.011209 0.068773 -0.376736
2004-03-10 07:53:50 51°14.424 2°54.928 11.980937 0.011209 0.068772 -0.410446
2004-03-10 07:53:56 51°14.436 2°54.9 11.980937 0.011209 0.068772 -0.410446
2004-03-10 07:54:00 51°14.443 2°54.881 11.902433 0.011209 0.068772 -0.376736
2004-03-10 07:54:06 51°14.453 2°54.852 11.970514 0.011209 0.068772 -0.376736
2004-03-10 07:54:10 51°14.46 2°54.834 12.005416 0.011209 0.068774 -0.376736
2004-03-10 07:54:15 51°14.467 2°54.811 11.960591 0.011209 0.068774 -0.410446
2004-03-10 07:54:20 51°14.474 2°54.789 12.042028 0.011209 0.068777 -0.410446
2004-03-10 07:54:24 51°14.479 2°54.771 12.042028 0.011209 0.068777 -0.410446
2004-03-10 07:54:30 51°14.487 2°54.746 12.086116 0.011209 0.068781 -0.410446
2004-03-10 07:54:35 51°14.492 2°54.724 12.008373 0.011209 0.068781 -0.376736
2004-03-10 07:54:40 51°14.496 2°54.703 12.019108 0.011209 0.068781 -0.376736
2004-03-10 07:54:46 51°14.501 2°54.677 11.990266 0.011209 0.068778 -0.376736
2004-03-10 07:54:50 51°14.505 2°54.66 12.021974 0.011209 0.068778 -0.410446
2004-03-10 07:54:55 51°14.508 2°54.64 12.021974 0.011209 0.068778 -0.410446
2004-03-10 07:55:00 51°14.512 2°54.619 11.945203 0.011209 0.068773 -0.410446
2004-03-10 07:55:04 51°14.516 2°54.603 11.926622 0.011209 0.068774 -0.376736
2004-03-10 07:55:10 51°14.521 2°54.58 11.952488 0.011209 0.068775 -0.376736
2004-03-10 07:55:14 51°14.525 2°54.564 11.928854 0.011209 0.068776 -0.376736
2004-03-10 07:55:20 51°14.531 2°54.541 12.022929 0.011209 0.068771 -0.376736
2004-03-10 07:55:25 51°14.537 2°54.521 12.022929 0.011209 0.068771 -0.376736
2004-03-10 07:55:30 51°14.544 2°54.501 12.011785 0.011209 0.068771 -0.376736
2004-03-10 07:55:35 51°14.551 2°54.48 11.917786 0.011209 0.068773 -0.376736
2004-03-10 07:55:40 51°14.559 2°54.459 11.940239 0.011209 0.068771 -0.376736
2004-03-10 07:55:46 51°14.569 2°54.434 11.980937 0.011209 0.068774 -0.376736
2004-03-10 07:55:50 51°14.576 2°54.417 11.94757 0.011209 0.068775 -0.376736
2004-03-10 07:55:54 51°14.583 2°54.399 11.94757 0.011209 0.068775 -0.376736
2004-03-10 07:56:00 51°14.594 2°54.372 11.931951 0.011209 0.068779 -0.343027
2004-03-10 07:56:06 51°14.605 2°54.344 11.960546 0.011209 0.068778 -0.376736
2004-03-10 07:56:10 51°14.612 2°54.325 11.886848 0.011209 0.068778 -0.376736
2004-03-10 07:56:15 51°14.622 2°54.301 11.881835 0.011209 0.068777 -0.376736
2004-03-10 07:56:20 51°14.632 2°54.277 11.898833 0.011209 0.068777 -0.376736
2004-03-10 07:56:26 51°14.643 2°54.247 11.898833 0.011209 0.068777 -0.376736
2004-03-10 07:56:30 51°14.652 2°54.228 11.855623 0.011209 0.068779 -0.410446
2004-03-10 07:56:35 51°14.663 2°54.203 11.905394 0.011209 0.068778 -0.410446
2004-03-10 07:56:40 51°14.674 2°54.18 11.860866 0.011209 0.068778 -0.376736
2004-03-10 07:56:44 51°14.683 2°54.16 11.937234 0.011209 0.068779 -0.410446
2004-03-10 07:56:50 51°14.697 2°54.132 11.927897 0.011209 0.068775 -0.410446
2004-03-10 07:56:55 51°14.708 2°54.108 11.927897 0.011209 0.068775 -0.410446
2004-03-10 07:57:00 51°14.72 2°54.085 11.840483 0.011209 0.068777 -0.410446
2004-03-10 07:57:04 51°14.73 2°54.066 11.913458 0.011209 0.068774 -0.410446
2004-03-10 07:57:10 51°14.744 2°54.038 11.847643 0.011209 0.068773 -0.376736
2004-03-10 07:57:15 51°14.756 2°54.014 11.904893 0.011209 0.068774 -0.376736
2004-03-10 07:57:20 51°14.768 2°53.991 11.905348 0.011209 0.068773 -0.376736
2004-03-10 07:57:26 51°14.781 2°53.962 11.905348 0.011209 0.068773 -0.376736
2004-03-10 07:57:30 51°14.791 2°53.943 11.878508 0.011209 0.068775 -0.376736
2004-03-10 07:57:34 51°14.8 2°53.925 11.878918 0.011209 0.068772 -0.343027
2004-03-10 07:57:40 51°14.815 2°53.898 11.860273 0.011209 0.06877 -0.376736
2004-03-10 07:57:46 51°14.831 2°53.874 11.834919 0.011209 0.068768 -0.376736
2004-03-10 07:57:50 51°14.842 2°53.858 11.874998 0.011209 0.068763 -0.376736
2004-03-10 07:57:55 51°14.857 2°53.839 11.874998 0.011209 0.068763 -0.376736
2004-03-10 07:58:00 51°14.871 2°53.821 11.87126 0.011209 0.06876 -0.343027
2004-03-10 07:58:04 51°14.883 2°53.807 11.887122 0.011209 0.068762 -0.410446
2004-03-10 07:58:10 51°14.901 2°53.786 11.906488 0.011209 0.068758 -0.376736
2004-03-10 07:58:14 51°14.913 2°53.772 11.854939 0.011209 0.068753 -0.376736
2004-03-10 07:58:20 51°14.93 2°53.75 11.886392 0.011209 0.068756 -0.410446
2004-03-10 07:58:25 51°14.945 2°53.732 11.886392 0.011209 0.068756 -0.410446
2004-03-10 07:58:30 51°14.959 2°53.713 11.89022 0.011209 0.068758 -0.410446
2004-03-10 07:58:36 51°14.976 2°53.69 11.936778 0.011209 0.068758 -0.410446
2004-03-10 07:58:40 51°14.987 2°53.674 11.929993 0.011209 0.068764 -0.376736
2004-03-10 07:58:46 51°15.004 2°53.651 11.844405 0.011209 0.068764 -0.376736
2004-03-10 07:58:50 51°15.016 2°53.637 11.880422 0.011209 0.068768 -0.410446
2004-03-10 07:58:55 51°15.031 2°53.619 11.880422 0.011209 0.068768 -0.410446
2004-03-10 07:59:00 51°15.046 2°53.603 11.846548 0.011209 0.06877 -0.410446
2004-03-10 07:59:06 51°15.066 2°53.585 11.849877 0.011209 0.068772 -0.376736
2004-03-10 07:59:10 51°15.078 2°53.574 11.875089 0.011209 0.068764 -0.410446
2004-03-10 07:59:14 51°15.091 2°53.563 11.895734 0.011209 0.068754 -0.376736
2004-03-10 07:59:20 51°15.111 2°53.548 11.887896 0.011209 0.068749 -0.410446
2004-03-10 07:59:24 51°15.124 2°53.538 11.887896 0.011209 0.068749 -0.410446
2004-03-10 07:59:30 51°15.143 2°53.524 11.914369 0.011209 0.068756 -0.376736
2004-03-10 07:59:35 51°15.16 2°53.513 11.916783 0.011209 0.068758 -0.376736
2004-03-10 07:59:40 51°15.176 2°53.502 11.899744 0.011209 0.068759 -0.376736
2004-03-10 07:59:46 51°15.196 2°53.487 11.933317 0.011209 0.068759 -0.376736
2004-03-10 07:59:50 51°15.209 2°53.477 11.942015 0.011209 0.068762 -0.410446
2004-03-10 07:59:54 51°15.222 2°53.467 11.942015 0.011209 0.068762 -0.410446
2004-03-10 08:00:00 51°15.242 2°53.45 11.956767 0.011209 0.068764 -0.410446
2004-03-10 08:00:06 51°15.261 2°53.432 11.920655 0.011209 0.068768 -0.376736
2004-03-10 08:00:10 51°15.274 2°53.42 11.934182 0.011209 0.068774 -0.376736
2004-03-10 08:00:16 51°15.292 2°53.401 11.902524 0.011209 0.068772 -0.376736
2004-03-10 08:00:20 51°15.305 2°53.388 11.901157 0.011209 0.068775 -0.410446
2004-03-10 08:00:24 51°15.318 2°53.375 11.901157 0.011209 0.068775 -0.410446
2004-03-10 08:00:30 51°15.337 2°53.356 11.899835 0.011209 0.06878 -0.410446
2004-03-10 08:00:36 51°15.356 2°53.339 11.874679 0.011209 0.068783 -0.410446
2004-03-10 08:00:40 51°15.37 2°53.329 11.867841 0.011209 0.06878 -0.410446
2004-03-10 08:00:46 51°15.39 2°53.316 11.87673 0.011209 0.068784 -0.410446
2004-03-10 08:00:50 51°15.404 2°53.307 11.923707 0.011209 0.068786 -0.410446
2004-03-10 08:00:56 51°15.425 2°53.297 11.923707 0.011209 0.068786 -0.410446
2004-03-10 08:01:00 51°15.439 2°53.289 11.922341 0.011209 0.068784 -0.410446
2004-03-10 08:01:04 51°15.453 2°53.283 11.909677 0.011209 0.068776 -0.376736
2004-03-10 08:01:10 51°15.474 2°53.271 11.940103 0.011209 0.068779 -0.376736
2004-03-10 08:01:15 51°15.492 2°53.262 11.947206 0.011209 0.068787 -0.410446
2004-03-10 08:01:20 51°15.509 2°53.252 11.946068 0.011209 0.068785 -0.410446
2004-03-10 08:01:26 51°15.53 2°53.239 11.946068 0.011209 0.068785 -0.410446
2004-03-10 08:01:30 51°15.544 2°53.231 11.940421 0.011209 0.068783 -0.376736
2004-03-10 08:01:34 51°15.558 2°53.222 11.933681 0.011209 0.068787 -0.410446
2004-03-10 08:01:40 51°15.578 2°53.209 11.918196 0.011209 0.06879 -0.376736
2004-03-10 08:01:44 51°15.592 2°53.201 11.909586 0.011209 0.068792 -0.410446
2004-03-10 08:01:50 51°15.613 2°53.189 11.925757 0.011209 0.068797 -0.410446
2004-03-10 08:01:56 51°15.634 2°53.177 11.925757 0.011209 0.068797 -0.410446
2004-03-10 08:02:00 51°15.648 2°53.169 11.95613 0.011209 0.068812 -0.376736
2004-03-10 08:02:05 51°15.665 2°53.158 11.935594 0.011209 0.06881 -0.376736
2004-03-10 08:02:10 51°15.683 2°53.148 11.923206 0.011209 0.068809 -0.376736
2004-03-10 08:02:14 51°15.697 2°53.14 11.956858 0.011209 0.068806 -0.410446
2004-03-10 08:02:20 51°15.717 2°53.128 11.938873 0.011209 0.068807 -0.376736
2004-03-10 08:02:26 51°15.738 2°53.115 11.938873 0.011209 0.068807 -0.376736
2004-03-10 08:02:30 51°15.752 2°53.107 11.924071 0.011209 0.06881 -0.410446
2004-03-10 08:02:36 51°15.773 2°53.095 11.942152 0.011209 0.06881 -0.376736
2004-03-10 08:02:40 51°15.787 2°53.087 11.907718 0.011209 0.068812 -0.376736
2004-03-10 08:02:46 51°15.808 2°53.074 11.964233 0.011209 0.068807 -0.410446
2004-03-10 08:02:50 51°15.822 2°53.067 11.927169 0.011209 0.068802 -0.410446
2004-03-10 08:02:56 51°15.843 2°53.055 11.927169 0.011209 0.068802 -0.410446
2004-03-10 08:03:00 51°15.857 2°53.047 11.912046 0.011209 0.068809 -0.376736
2004-03-10 08:03:06 51°15.878 2°53.035 11.936733 0.011209 0.06881 -0.410446
2004-03-10 08:03:10 51°15.892 2°53.026 11.937006 0.011209 0.06881 -0.410446
2004-03-10 08:03:16 51°15.912 2°53.014 11.920109 0.011209 0.068809 -0.410446
2004-03-10 08:03:20 51°15.926 2°53.006 11.935275 0.011209 0.068805 -0.410446
2004-03-10 08:03:24 51°15.94 2°52.998 11.935275 0.011209 0.068805 -0.410446
2004-03-10 08:03:30 51°15.961 2°52.985 11.927396 0.011209 0.068804 -0.444155
2004-03-10 08:03:35 51°15.979 2°52.974 11.928398 0.011209 0.068807 -0.376736
2004-03-10 08:03:40 51°15.996 2°52.964 11.92225 0.011209 0.068808 -0.410446
2004-03-10 08:03:46 51°16.017 2°52.951 11.926167 0.011209 0.068811 -0.410446
2004-03-10 08:03:50 51°16.031 2°52.943 11.935048 0.011209 0.068813 -0.410446
2004-03-10 08:03:54 51°16.044 2°52.935 11.935048 0.011209 0.068813 -0.410446
2004-03-10 08:04:00 51°16.065 2°52.922 11.938873 0.011209 0.068811 -0.410446
2004-03-10 08:04:04 51°16.079 2°52.914 11.910816 0.011209 0.068807 -0.376736
2004-03-10 08:04:10 51°16.1 2°52.902 11.951031 0.011209 0.068807 -0.376736
2004-03-10 08:04:16 51°16.121 2°52.889 11.949938 0.011209 0.068812 -0.410446
2004-03-10 08:04:20 51°16.135 2°52.881 11.92981 0.011209 0.068814 -0.410446
2004-03-10 08:04:26 51°16.155 2°52.869 11.92981 0.011209 0.068814 -0.410446
2004-03-10 08:04:30 51°16.169 2°52.86 11.925893 0.011209 0.068812 -0.410446
2004-03-10 08:04:36 51°16.19 2°52.848 11.932953 0.011209 0.068813 -0.376736
2004-03-10 08:04:40 51°16.204 2°52.839 11.964461 0.011209 0.068813 -0.410446
2004-03-10 08:04:44 51°16.218 2°52.831 11.935412 0.011209 0.068808 -0.410446
2004-03-10 08:04:50 51°16.239 2°52.818 11.947434 0.011209 0.068809 -0.410446
2004-03-10 08:04:56 51°16.259 2°52.806 11.947434 0.011209 0.068809 -0.410446
2004-03-10 08:05:00 51°16.273 2°52.797 11.948572 0.011209 0.06881 -0.410446
2004-03-10 08:05:06 51°16.294 2°52.785 11.933408 0.011209 0.068812 -0.376736
2004-03-10 08:05:10 51°16.308 2°52.777 11.926895 0.011209 0.068815 -0.376736
2004-03-10 08:05:16 51°16.329 2°52.766 11.922568 0.011209 0.068814 -0.410446
2004-03-10 08:05:20 51°16.343 2°52.76 11.914825 0.011209 0.068816 -0.410446
2004-03-10 08:05:26 51°16.364 2°52.749 11.914825 0.011209 0.068816 -0.410446
2004-03-10 08:05:30 51°16.378 2°52.743 11.939602 0.011209 0.068818 -0.410446
2004-03-10 08:05:36 51°16.399 2°52.733 11.944656 0.011209 0.068815 -0.444155
2004-03-10 08:05:40 51°16.413 2°52.727 11.949574 0.011209 0.068814 -0.410446
2004-03-10 08:05:46 51°16.434 2°52.716 11.936733 0.011209 0.068813 -0.410446
2004-03-10 08:05:50 51°16.449 2°52.71 11.936596 0.011209 0.068808 -0.410446
2004-03-10 08:05:54 51°16.463 2°52.703 11.936596 0.011209 0.068808 -0.410446
2004-03-10 08:06:00 51°16.483 2°52.693 11.933317 0.011209 0.068809 -0.410446
2004-03-10 08:06:06 51°16.505 2°52.683 11.936232 0.011209 0.068806 -0.410446
2004-03-10 08:06:10 51°16.519 2°52.677 11.945749 0.011209 0.068805 -0.410446
2004-03-10 08:06:14 51°16.533 2°52.671 11.941059 0.011209 0.068811 -0.376736
2004-03-10 08:06:20 51°16.554 2°52.662 11.951167 0.011209 0.068812 -0.410446
2004-03-10 08:06:26 51°16.575 2°52.652 11.951167 0.011209 0.068812 -0.410446
2004-03-10 08:06:30 51°16.589 2°52.646 11.959453 0.011209 0.068814 -0.376736
2004-03-10 08:06:36 51°16.61 2°52.637 11.942425 0.011209 0.068811 -0.444155
2004-03-10 08:06:40 51°16.624 2°52.631 11.938372 0.011209 0.068809 -0.410446
2004-03-10 08:06:46 51°16.645 2°52.621 11.952624 0.011209 0.068816 -0.376736
2004-03-10 08:06:50 51°16.659 2°52.615 11.93901 0.011209 0.068817 -0.410446
2004-03-10 08:06:54 51°16.673 2°52.609 11.93901 0.011209 0.068817 -0.410446
2004-03-10 08:07:00 51°16.694 2°52.6 11.95918 0.011209 0.068819 -0.376736
2004-03-10 08:07:04 51°16.708 2°52.594 11.926759 0.011209 0.068817 -0.410446
2004-03-10 08:07:10 51°16.729 2°52.586 11.952396 0.011209 0.068822 -0.410446
2004-03-10 08:07:16 51°16.749 2°52.578 11.964734 0.011209 0.068826 -0.410446
2004-03-10 08:07:20 51°16.763 2°52.573 11.947843 0.011209 0.068829 -0.410446
2004-03-10 08:07:24 51°16.777 2°52.568 11.947843 0.011209 0.068829 -0.410446
2004-03-10 08:07:30 51°16.797 2°52.56 11.972153 0.011209 0.068818 -0.376736
2004-03-10 08:07:34 51°16.811 2°52.554 11.940421 0.011209 0.068812 -0.444155
2004-03-10 08:07:40 51°16.832 2°52.545 11.938964 0.011209 0.068818 -0.376736
2004-03-10 08:07:46 51°16.853 2°52.536 11.935412 0.011209 0.068818 -0.410446
2004-03-10 08:07:50 51°16.866 2°52.529 11.934274 0.011209 0.068822 -0.410446
2004-03-10 08:07:56 51°16.887 2°52.52 11.934274 0.011209 0.068822 -0.410446
2004-03-10 08:08:00 51°16.901 2°52.513 11.944747 0.011209 0.068824 -0.410446
2004-03-10 08:08:06 51°16.922 2°52.504 11.946978 0.011209 0.068822 -0.410446
2004-03-10 08:08:10 51°16.936 2°52.498 11.942015 0.011209 0.068821 -0.444155
2004-03-10 08:08:14 51°16.95 2°52.495 11.923069 0.011209 0.068799 -0.444155
2004-03-10 08:08:20 51°16.971 2°52.49 11.915189 0.011209 0.06879 -0.376736
2004-03-10 08:08:26 51°16.991 2°52.488 11.915189 0.011209 0.06879 -0.376736
2004-03-10 08:08:30 51°17.005 2°52.487 11.949665 0.011209 0.068788 -0.410446
2004-03-10 08:08:36 51°17.026 2°52.486 11.953262 0.011209 0.068791 -0.444155
2004-03-10 08:08:40 51°17.04 2°52.486 11.956084 0.011209 0.068792 -0.410446
2004-03-10 08:08:46 51°17.06 2°52.486 11.956813 0.011209 0.068798 -0.410446
2004-03-10 08:08:50 51°17.074 2°52.485 11.982757 0.011209 0.068806 -0.444155
2004-03-10 08:08:56 51°17.095 2°52.483 11.982757 0.011209 0.068806 -0.444155
2004-03-10 08:09:00 51°17.109 2°52.481 11.955902 0.011209 0.068808 -0.410446
2004-03-10 08:09:04 51°17.123 2°52.479 11.965234 0.011209 0.068814 -0.410446
2004-03-10 08:09:10 51°17.144 2°52.475 11.967647 0.011209 0.068798 -0.444155
2004-03-10 08:09:15 51°17.162 2°52.471 11.954582 0.011209 0.068796 -0.444155
2004-03-10 08:09:20 51°17.179 2°52.468 11.946751 0.011209 0.068805 -0.410446
2004-03-10 08:09:24 51°17.193 2°52.465 11.946751 0.011209 0.068805 -0.410446
2004-03-10 08:09:30 51°17.215 2°52.461 11.947434 0.011209 0.068813 -0.410446
2004-03-10 08:09:35 51°17.232 2°52.459 11.938463 0.011209 0.068818 -0.410446
2004-03-10 08:09:40 51°17.25 2°52.457 11.970059 0.011209 0.068816 -0.410446
2004-03-10 08:09:44 51°17.264 2°52.455 11.94757 0.011209 0.068824 -0.444155
2004-03-10 08:09:50 51°17.285 2°52.453 11.971698 0.011209 0.068825 -0.410446
2004-03-10 08:09:55 51°17.303 2°52.452 11.971698 0.011209 0.068825 -0.410446
2004-03-10 08:10:00 51°17.321 2°52.45 11.958178 0.011209 0.068813 -0.410446
2004-03-10 08:10:05 51°17.339 2°52.449 11.982848 0.011209 0.068803 -0.410446
2004-03-10 08:10:10 51°17.357 2°52.447 11.960136 0.011209 0.068808 -0.410446
2004-03-10 08:10:16 51°17.378 2°52.443 11.973792 0.011209 0.068813 -0.410446
2004-03-10 08:10:20 51°17.392 2°52.441 11.980391 0.011209 0.068823 -0.444155
2004-03-10 08:10:26 51°17.413 2°52.438 11.980391 0.011209 0.068823 -0.444155
2004-03-10 08:10:30 51°17.427 2°52.436 11.971334 0.011209 0.068816 -0.410446
2004-03-10 08:10:35 51°17.445 2°52.433 11.953489 0.011209 0.068821 -0.444155
2004-03-10 08:10:40 51°17.463 2°52.431 11.962958 0.011209 0.068824 -0.410446
2004-03-10 08:10:44 51°17.477 2°52.429 11.952806 0.011209 0.068828 -0.410446
2004-03-10 08:10:50 51°17.498 2°52.427 11.959089 0.011209 0.068823 -0.410446
2004-03-10 08:10:56 51°17.519 2°52.425 11.959089 0.011209 0.068823 -0.410446
2004-03-10 08:11:00 51°17.533 2°52.424 11.959817 0.011209 0.068824 -0.444155
2004-03-10 08:11:06 51°17.555 2°52.422 11.967374 0.011209 0.068818 -0.444155
2004-03-10 08:11:10 51°17.569 2°52.42 11.969559 0.011209 0.068819 -0.444155
2004-03-10 08:11:16 51°17.59 2°52.418 11.966372 0.011209 0.068825 -0.410446
2004-03-10 08:11:20 51°17.604 2°52.416 11.973336 0.011209 0.06883 -0.410446
2004-03-10 08:11:26 51°17.626 2°52.412 11.973336 0.011209 0.06883 -0.410446
2004-03-10 08:11:30 51°17.64 2°52.41 11.964779 0.011209 0.068833 -0.444155
2004-03-10 08:11:36 51°17.661 2°52.407 11.965781 0.011209 0.068836 -0.444155
2004-03-10 08:11:40 51°17.676 2°52.405 11.968057 0.011209 0.068833 -0.444155
2004-03-10 08:11:46 51°17.697 2°52.402 11.969468 0.011209 0.068828 -0.410446
2004-03-10 08:11:50 51°17.711 2°52.401 11.967192 0.011209 0.068828 -0.444155
2004-03-10 08:11:56 51°17.732 2°52.398 11.967192 0.011209 0.068828 -0.444155
2004-03-10 08:12:00 51°17.747 2°52.397 11.972199 0.011209 0.068834 -0.444155
2004-03-10 08:12:06 51°17.768 2°52.394 11.984987 0.011209 0.068833 -0.444155
2004-03-10 08:12:10 51°17.782 2°52.392 11.972426 0.011209 0.068838 -0.444155
2004-03-10 08:12:16 51°17.803 2°52.389 11.976613 0.011209 0.068847 -0.410446
2004-03-10 08:12:20 51°17.817 2°52.387 11.993997 0.011209 0.068855 -0.444155
2004-03-10 08:12:24 51°17.832 2°52.384 11.993997 0.011209 0.068855 -0.444155
2004-03-10 08:12:30 51°17.853 2°52.381 11.973701 0.011209 0.068856 -0.410446
2004-03-10 08:12:35 51°17.871 2°52.378 11.990994 0.011209 0.068855 -0.444155
2004-03-10 08:12:40 51°17.888 2°52.375 11.969559 0.011209 0.068852 -0.444155
2004-03-10 08:12:46 51°17.91 2°52.372 11.972108 0.011209 0.068852 -0.444155
2004-03-10 08:12:50 51°17.924 2°52.371 11.962913 0.011209 0.068855 -0.444155
2004-03-10 08:12:56 51°17.946 2°52.371 11.962913 0.011209 0.068855 -0.444155
2004-03-10 08:13:00 51°17.96 2°52.371 11.966691 0.011209 0.068857 -0.444155
2004-03-10 08:13:06 51°17.981 2°52.373 11.983485 0.011209 0.06886 -0.410446
2004-03-10 08:13:10 51°17.995 2°52.375 11.986034 0.011209 0.06885 -0.444155
2004-03-10 08:13:14 51°18.009 2°52.377 11.999184 0.011209 0.06884 -0.410446
2004-03-10 08:13:20 51°18.03 2°52.38 11.981756 0.011209 0.068837 -0.410446
2004-03-10 08:13:26 51°18.051 2°52.383 11.981756 0.011209 0.068837 -0.410446
2004-03-10 08:13:30 51°18.065 2°52.385 11.979526 0.011209 0.068838 -0.410446
2004-03-10 08:13:36 51°18.086 2°52.387 11.985169 0.011209 0.068839 -0.410446
2004-03-10 08:13:40 51°18.1 2°52.389 11.987262 0.011209 0.068837 -0.444155
2004-03-10 08:13:46 51°18.122 2°52.391 11.994634 0.011209 0.068841 -0.410446
2004-03-10 08:13:50 51°18.136 2°52.392 11.988855 0.011209 0.068847 -0.410446
2004-03-10 08:13:54 51°18.15 2°52.393 11.988855 0.011209 0.068847 -0.410446
2004-03-10 08:14:00 51°18.171 2°52.395 11.995589 0.011209 0.068843 -0.410446
2004-03-10 08:14:06 51°18.192 2°52.397 11.988628 0.011209 0.068847 -0.410446
2004-03-10 08:14:10 51°18.206 2°52.398 11.992905 0.011209 0.068851 -0.444155
2004-03-10 08:14:16 51°18.227 2°52.403 11.979663 0.011209 0.068857 -0.410446
2004-03-10 08:14:20 51°18.241 2°52.406 11.977387 0.011209 0.068851 -0.410446
2004-03-10 08:14:26 51°18.261 2°52.413 11.977387 0.011209 0.068851 -0.410446
2004-03-10 08:14:30 51°18.275 2°52.418 12.003597 0.011209 0.068853 -0.410446
2004-03-10 08:14:36 51°18.295 2°52.426 11.991904 0.011209 0.068853 -0.444155
2004-03-10 08:14:40 51°18.309 2°52.431 11.993542 0.011209 0.068854 -0.410446
2004-03-10 08:14:45 51°18.325 2°52.438 12.000639 0.011209 0.068862 -0.410446
2004-03-10 08:14:50 51°18.342 2°52.445 12.005507 0.011209 0.06886 -0.410446
2004-03-10 08:14:55 51°18.359 2°52.451 12.005507 0.011209 0.06886 -0.410446
2004-03-10 08:15:00 51°18.376 2°52.457 12.013104 0.011209 0.068856 -0.410446
2004-03-10 08:15:06 51°18.396 2°52.465 11.993496 0.011209 0.068857 -0.444155
2004-03-10 08:15:10 51°18.41 2°52.47 12.011785 0.011209 0.068865 -0.410446
2004-03-10 08:15:16 51°18.43 2°52.478 12.004688 0.011209 0.068867 -0.410446
2004-03-10 08:15:20 51°18.444 2°52.483 11.997682 0.011209 0.068869 -0.410446
2004-03-10 08:15:26 51°18.464 2°52.491 11.997682 0.011209 0.068869 -0.410446
2004-03-10 08:15:30 51°18.478 2°52.496 11.994497 0.011209 0.068865 -0.410446
2004-03-10 08:15:36 51°18.498 2°52.503 12.014332 0.011209 0.068869 -0.410446
2004-03-10 08:15:40 51°18.512 2°52.508 12.010056 0.011209 0.068869 -0.410446
2004-03-10 08:15:46 51°18.532 2°52.515 12.004416 0.011209 0.068872 -0.410446
2004-03-10 08:15:50 51°18.545 2°52.52 11.990357 0.011209 0.068874 -0.410446
2004-03-10 08:15:55 51°18.562 2°52.528 11.990357 0.011209 0.068874 -0.410446
2004-03-10 08:16:00 51°18.578 2°52.536 11.989401 0.011209 0.068875 -0.444155
2004-03-10 08:16:04 51°18.591 2°52.544 12.003961 0.011209 0.068876 -0.444155
2004-03-10 08:16:10 51°18.61 2°52.555 12.007645 0.011209 0.068868 -0.410446
2004-03-10 08:16:14 51°18.623 2°52.563 12.005143 0.011209 0.068864 -0.444155
2004-03-10 08:16:20 51°18.642 2°52.574 12.02352 0.011209 0.068863 -0.444155
2004-03-10 08:16:25 51°18.658 2°52.584 12.02352 0.011209 0.068863 -0.444155
2004-03-10 08:16:30 51°18.674 2°52.593 12.003824 0.011209 0.068863 -0.410446
2004-03-10 08:16:36 51°18.693 2°52.605 12.009374 0.011209 0.068867 -0.444155
2004-03-10 08:16:40 51°18.706 2°52.613 12.016425 0.011209 0.068869 -0.410446
2004-03-10 08:16:46 51°18.725 2°52.624 12.008464 0.011209 0.068871 -0.444155
2004-03-10 08:16:50 51°18.738 2°52.632 12.005416 0.011209 0.068875 -0.477864
2004-03-10 08:16:56 51°18.757 2°52.643 12.005416 0.011209 0.068875 -0.477864
2004-03-10 08:17:00 51°18.77 2°52.651 12.019381 0.011209 0.068876 -0.444155
2004-03-10 08:17:06 51°18.789 2°52.662 12.025385 0.011209 0.068879 -0.477864
2004-03-10 08:17:10 51°18.802 2°52.669 12.008237 0.011209 0.068877 -0.444155
2004-03-10 08:17:15 51°18.818 2°52.679 12.008237 0.011209 0.068875 -0.444155
2004-03-10 08:17:20 51°18.834 2°52.689 12.011921 0.011209 0.06888 -0.444155
2004-03-10 08:17:24 51°18.846 2°52.698 12.011921 0.011209 0.06888 -0.444155
2004-03-10 08:17:30 51°18.864 2°52.711 12.008874 0.011209 0.068878 -0.410446
2004-03-10 08:17:36 51°18.883 2°52.725 12.012376 0.011209 0.068878 -0.410446
2004-03-10 08:17:40 51°18.895 2°52.734 12.010284 0.011209 0.068879 -0.410446
2004-03-10 08:17:44 51°18.907 2°52.743 12.019836 0.011209 0.068876 -0.444155
2004-03-10 08:17:50 51°18.926 2°52.757 12.032706 0.011209 0.068878 -0.444155
2004-03-10 08:17:56 51°18.944 2°52.77 12.032706 0.011209 0.068878 -0.444155
2004-03-10 08:18:00 51°18.956 2°52.779 12.027477 0.011209 0.068876 -0.444155
2004-03-10 08:18:06 51°18.975 2°52.792 12.012149 0.011209 0.068885 -0.410446
2004-03-10 08:18:10 51°18.987 2°52.802 12.020836 0.011209 0.068886 -0.444155
2004-03-10 08:18:16 51°19.005 2°52.815 12.020245 0.011209 0.068887 -0.477864
2004-03-10 08:18:20 51°19.018 2°52.824 12.022701 0.011209 0.068883 -0.444155
2004-03-10 08:18:24 51°19.03 2°52.832 12.022701 0.011209 0.068883 -0.444155
2004-03-10 08:18:30 51°19.049 2°52.846 12.016061 0.011209 0.068882 -0.444155
2004-03-10 08:18:35 51°19.064 2°52.857 12.02784 0.011209 0.068884 -0.477864
2004-03-10 08:18:40 51°19.079 2°52.869 12.021837 0.011209 0.068889 -0.444155
2004-03-10 08:18:46 51°19.098 2°52.882 12.030387 0.011209 0.068888 -0.444155
2004-03-10 08:18:50 51°19.11 2°52.891 12.017334 0.011209 0.068888 -0.410446
2004-03-10 08:18:55 51°19.126 2°52.902 12.017334 0.011209 0.068888 -0.410446
2004-03-10 08:19:00 51°19.141 2°52.913 12.01929 0.011209 0.068891 -0.444155
2004-03-10 08:19:05 51°19.157 2°52.924 12.020336 0.011209 0.06889 -0.444155
2004-03-10 08:19:10 51°19.173 2°52.935 12.019518 0.011209 0.06889 -0.444155
2004-03-10 08:19:16 51°19.191 2°52.949 12.036753 0.011209 0.068888 -0.444155
2004-03-10 08:19:20 51°19.203 2°52.958 12.026794 0.011209 0.068884 -0.444155
2004-03-10 08:19:26 51°19.222 2°52.971 12.026794 0.011209 0.068884 -0.444155
2004-03-10 08:19:30 51°19.234 2°52.98 12.029023 0.011209 0.068884 -0.444155
2004-03-10 08:19:36 51°19.253 2°52.993 12.032979 0.011209 0.068896 -0.444155
2004-03-10 08:19:40 51°19.265 2°53.002 12.026112 0.011209 0.068893 -0.444155
2004-03-10 08:19:46 51°19.284 2°53.015 12.032706 0.011209 0.068891 -0.444155
2004-03-10 08:19:50 51°19.296 2°53.024 12.02452 0.011209 0.068893 -0.444155
2004-03-10 08:19:56 51°19.315 2°53.037 12.02452 0.011209 0.068893 -0.444155
2004-03-10 08:20:00 51°19.327 2°53.045 12.030387 0.011209 0.068895 -0.444155
2004-03-10 08:20:05 51°19.343 2°53.056 12.029659 0.011209 0.06889 -0.410446
2004-03-10 08:20:10 51°19.359 2°53.067 12.025112 0.011209 0.068887 -0.444155
2004-03-10 08:20:15 51°19.374 2°53.079 12.032706 0.011209 0.068895 -0.410446
2004-03-10 08:20:20 51°19.39 2°53.09 12.034889 0.011209 0.068895 -0.444155
2004-03-10 08:20:26 51°19.408 2°53.103 12.034889 0.011209 0.068895 -0.444155
2004-03-10 08:20:30 51°19.42 2°53.112 12.0403 0.011209 0.068898 -0.410446
2004-03-10 08:20:36 51°19.439 2°53.125 12.042801 0.011209 0.06889 -0.444155
2004-03-10 08:20:40 51°19.451 2°53.134 12.03357 0.011209 0.068891 -0.444155
2004-03-10 08:20:46 51°19.47 2°53.147 12.02975 0.011209 0.068899 -0.444155
2004-03-10 08:20:50 51°19.482 2°53.156 12.038481 0.011209 0.068899 -0.444155
2004-03-10 08:20:55 51°19.498 2°53.167 12.038481 0.011209 0.068899 -0.444155
2004-03-10 08:21:00 51°19.513 2°53.177 12.0418 0.011209 0.068897 -0.444155
2004-03-10 08:21:06 51°19.531 2°53.19 12.036526 0.011209 0.068895 -0.444155
2004-03-10 08:21:10 51°19.544 2°53.199 12.03066 0.011209 0.068893 -0.444155
2004-03-10 08:21:16 51°19.563 2°53.212 12.040118 0.011209 0.068892 -0.444155
2004-03-10 08:21:20 51°19.575 2°53.221 12.03548 0.011209 0.068897 -0.444155
2004-03-10 08:21:26 51°19.593 2°53.234 12.03548 0.011209 0.068897 -0.444155
2004-03-10 08:21:30 51°19.605 2°53.242 12.037253 0.011209 0.068898 -0.444155
2004-03-10 08:21:36 51°19.623 2°53.255 12.048756 0.011209 0.068899 -0.477864
2004-03-10 08:21:40 51°19.635 2°53.264 12.041709 0.011209 0.068898 -0.444155
2004-03-10 08:21:46 51°19.654 2°53.277 12.035525 0.011209 0.068899 -0.477864
2004-03-10 08:21:50 51°19.666 2°53.286 12.039891 0.011209 0.068902 -0.444155
2004-03-10 08:21:55 51°19.681 2°53.296 12.039891 0.011209 0.068902 -0.444155
2004-03-10 08:22:00 51°19.696 2°53.307 12.052712 0.011209 0.068902 -0.444155
2004-03-10 08:22:06 51°19.715 2°53.32 12.046938 0.011209 0.068898 -0.444155
2004-03-10 08:22:10 51°19.727 2°53.329 12.042528 0.011209 0.068895 -0.477864
2004-03-10 08:22:16 51°19.745 2°53.342 12.038254 0.011209 0.068893 -0.444155
2004-03-10 08:22:20 51°19.758 2°53.351 12.043301 0.011209 0.068888 -0.444155
2004-03-10 08:22:26 51°19.776 2°53.364 12.043301 0.011209 0.068888 -0.444155
2004-03-10 08:22:30 51°19.788 2°53.373 12.040891 0.011209 0.068883 -0.477864
2004-03-10 08:22:36 51°19.806 2°53.386 12.056485 0.011209 0.06889 -0.477864
2004-03-10 08:22:40 51°19.819 2°53.395 12.044983 0.011209 0.068888 -0.477864
2004-03-10 08:22:46 51°19.837 2°53.408 12.048211 0.011209 0.068892 -0.444155
2004-03-10 08:22:50 51°19.849 2°53.417 12.044119 0.011209 0.068888 -0.477864
2004-03-10 08:22:55 51°19.865 2°53.427 12.044119 0.011209 0.068888 -0.477864
2004-03-10 08:23:00 51°19.88 2°53.439 12.044437 0.011209 0.068893 -0.444155
2004-03-10 08:23:05 51°19.896 2°53.449 12.04571 0.011209 0.068895 -0.444155
2004-03-10 08:23:10 51°19.91 2°53.461 12.05103 0.011209 0.068897 -0.477864
2004-03-10 08:23:16 51°19.929 2°53.474 12.053575 0.011209 0.068889 -0.477864
2004-03-10 08:23:20 51°19.941 2°53.483 12.053575 0.011209 0.06889 -0.477864
2004-03-10 08:23:26 51°19.959 2°53.496 12.053575 0.011209 0.06889 -0.477864
2004-03-10 08:23:30 51°19.971 2°53.505 12.047302 0.011209 0.068891 -0.444155
2004-03-10 08:23:35 51°19.987 2°53.516 12.047847 0.011209 0.068896 -0.477864
2004-03-10 08:23:40 51°20.002 2°53.527 12.051848 0.011209 0.068896 -0.477864
2004-03-10 08:23:46 51°20.02 2°53.54 12.054075 0.011209 0.068897 -0.477864
2004-03-10 08:23:50 51°20.033 2°53.549 12.051757 0.011209 0.068902 -0.410446
2004-03-10 08:23:56 51°20.051 2°53.563 12.051757 0.011209 0.068902 -0.410446
2004-03-10 08:24:00 51°20.063 2°53.571 12.051075 0.011209 0.0689 -0.477864
2004-03-10 08:24:06 51°20.082 2°53.585 12.055485 0.011209 0.068902 -0.444155
2004-03-10 08:24:10 51°20.094 2°53.593 12.057621 0.011209 0.0689 -0.444155
2004-03-10 08:24:16 51°20.113 2°53.607 12.054166 0.011209 0.0689 -0.477864
2004-03-10 08:24:20 51°20.125 2°53.616 12.062985 0.011209 0.068901 -0.444155
2004-03-10 08:24:26 51°20.143 2°53.629 12.062985 0.011209 0.068901 -0.444155
2004-03-10 08:24:30 51°20.155 2°53.638 12.060848 0.011209 0.068895 -0.477864
2004-03-10 08:24:36 51°20.174 2°53.651 12.062985 0.011209 0.068888 -0.444155
2004-03-10 08:24:40 51°20.186 2°53.66 12.070802 0.011209 0.068885 -0.477864
2004-03-10 08:24:46 51°20.205 2°53.673 12.059939 0.011209 0.06889 -0.444155
2004-03-10 08:24:50 51°20.217 2°53.681 12.065757 0.011209 0.068893 -0.477864
2004-03-10 08:24:55 51°20.232 2°53.693 12.065757 0.011209 0.068893 -0.477864
2004-03-10 08:25:00 51°20.247 2°53.704 12.067848 0.011209 0.068896 -0.477864
2004-03-10 08:25:04 51°20.259 2°53.714 12.057621 0.011209 0.068883 -0.477864
2004-03-10 08:25:10 51°20.277 2°53.728 12.06903 0.011209 0.068888 -0.444155
2004-03-10 08:25:16 51°20.295 2°53.743 12.06103 0.011209 0.06889 -0.477864
2004-03-10 08:25:20 51°20.307 2°53.752 12.076347 0.011209 0.068888 -0.444155
2004-03-10 08:25:26 51°20.325 2°53.767 12.076347 0.011209 0.068888 -0.444155
2004-03-10 08:25:30 51°20.337 2°53.777 12.065166 0.011209 0.06889 -0.477864
2004-03-10 08:25:35 51°20.352 2°53.789 12.070802 0.011209 0.068896 -0.444155
2004-03-10 08:25:40 51°20.367 2°53.801 12.066439 0.011209 0.068902 -0.444155
2004-03-10 08:25:45 51°20.381 2°53.813 12.066848 0.011209 0.068903 -0.477864
2004-03-10 08:25:50 51°20.396 2°53.825 12.080527 0.011209 0.068906 -0.477864
2004-03-10 08:25:56 51°20.415 2°53.839 12.080527 0.011209 0.068906 -0.477864
2004-03-10 08:26:00 51°20.427 2°53.849 12.071166 0.011209 0.06891 -0.444155
2004-03-10 08:26:06 51°20.445 2°53.863 12.07062 0.011209 0.068904 -0.477864
2004-03-10 08:26:10 51°20.457 2°53.873 12.074029 0.011209 0.068901 -0.477864
2004-03-10 08:26:16 51°20.475 2°53.888 12.077483 0.011209 0.068904 -0.444155
2004-03-10 08:26:20 51°20.487 2°53.898 12.0798 0.011209 0.0689 -0.477864
2004-03-10 08:26:26 51°20.505 2°53.913 12.0798 0.011209 0.0689 -0.477864
2004-03-10 08:26:30 51°20.517 2°53.923 12.078528 0.011209 0.068903 -0.477864
2004-03-10 08:26:35 51°20.532 2°53.935 12.076392 0.011209 0.068903 -0.477864
2004-03-10 08:26:40 51°20.547 2°53.948 12.079028 0.011209 0.068906 -0.444155
2004-03-10 08:26:46 51°20.565 2°53.963 12.086525 0.011209 0.068903 -0.444155
2004-03-10 08:26:50 51°20.577 2°53.972 12.076574 0.011209 0.068905 -0.444155
2004-03-10 08:26:56 51°20.595 2°53.987 12.076574 0.011209 0.068905 -0.444155
2004-03-10 08:27:00 51°20.607 2°53.996 12.076119 0.011209 0.068904 -0.444155
2004-03-10 08:27:06 51°20.625 2°54.011 12.083481 0.011209 0.068903 -0.477864
2004-03-10 08:27:10 51°20.637 2°54.021 12.077801 0.011209 0.068902 -0.477864
2004-03-10 08:27:16 51°20.656 2°54.036 12.079164 0.011209 0.068905 -0.477864
2004-03-10 08:27:20 51°20.668 2°54.046 12.080118 0.011209 0.068907 -0.444155
2004-03-10 08:27:24 51°20.68 2°54.055 12.080118 0.011209 0.068907 -0.444155
2004-03-10 08:27:30 51°20.698 2°54.071 12.081254 0.011209 0.068908 -0.477864
2004-03-10 08:27:36 51°20.716 2°54.086 12.092931 0.011209 0.068904 -0.444155
2004-03-10 08:27:40 51°20.728 2°54.095 12.083072 0.011209 0.068902 -0.444155
2004-03-10 08:27:46 51°20.746 2°54.11 12.08548 0.011209 0.068901 -0.444155
2004-03-10 08:27:50 51°20.758 2°54.12 12.096112 0.011209 0.068902 -0.477864
2004-03-10 08:27:56 51°20.776 2°54.134 12.096112 0.011209 0.068902 -0.477864
2004-03-10 08:28:00 51°20.788 2°54.144 12.08907 0.011209 0.068897 -0.444155
2004-03-10 08:28:05 51°20.803 2°54.157 12.083799 0.011209 0.068896 -0.444155
2004-03-10 08:28:10 51°20.818 2°54.169 12.099201 0.011209 0.068901 -0.444155
2004-03-10 08:28:16 51°20.836 2°54.184 12.103108 0.011209 0.068902 -0.477864
2004-03-10 08:28:20 51°20.848 2°54.194 12.089024 0.011209 0.068902 -0.444155
2004-03-10 08:28:26 51°20.865 2°54.208 12.089024 0.011209 0.068902 -0.444155
2004-03-10 08:28:30 51°20.877 2°54.218 12.102699 0.011209 0.068907 -0.444155
2004-03-10 08:28:36 51°20.895 2°54.232 12.100972 0.011209 0.068905 -0.444155
2004-03-10 08:28:40 51°20.907 2°54.242 12.092341 0.011209 0.068901 -0.444155
2004-03-10 08:28:45 51°20.922 2°54.253 12.090251 0.011209 0.068898 -0.444155
2004-03-10 08:28:50 51°20.937 2°54.266 12.090523 0.011209 0.068899 -0.477864
2004-03-10 08:28:56 51°20.955 2°54.28 12.090523 0.011209 0.068899 -0.477864
2004-03-10 08:29:00 51°20.966 2°54.29 12.093931 0.011209 0.068904 -0.444155
2004-03-10 08:29:06 51°20.984 2°54.305 12.092613 0.011209 0.068899 -0.477864
2004-03-10 08:29:10 51°20.996 2°54.315 12.100654 0.011209 0.068901 -0.477864
2004-03-10 08:29:14 51°21.008 2°54.325 12.094885 0.011209 0.068897 -0.477864
2004-03-10 08:29:20 51°21.026 2°54.339 12.106878 0.011209 0.068895 -0.444155
2004-03-10 08:29:26 51°21.044 2°54.353 12.106878 0.011209 0.068895 -0.444155
2004-03-10 08:29:30 51°21.056 2°54.363 12.102835 0.011209 0.068898 -0.477864
2004-03-10 08:29:36 51°21.075 2°54.377 12.094703 0.011209 0.068893 -0.444155
2004-03-10 08:29:40 51°21.087 2°54.387 12.10715 0.011209 0.068897 -0.444155
2004-03-10 08:29:46 51°21.105 2°54.401 12.104334 0.011209 0.068895 -0.477864
2004-03-10 08:29:50 51°21.117 2°54.411 12.099019 0.011209 0.068899 -0.477864
2004-03-10 08:29:55 51°21.132 2°54.423 12.099019 0.011209 0.068899 -0.477864
2004-03-10 08:30:00 51°21.147 2°54.435 12.108922 0.011209 0.0689 -0.444155
2004-03-10 08:30:06 51°21.165 2°54.45 12.096702 0.011209 0.068897 -0.444155
2004-03-10 08:30:10 51°21.177 2°54.459 12.107741 0.011209 0.06889 -0.477864
2004-03-10 08:30:15 51°21.192 2°54.472 12.107832 0.011209 0.068897 -0.444155
2004-03-10 08:30:20 51°21.207 2°54.484 12.100927 0.011209 0.068891 -0.477864
2004-03-10 08:30:26 51°21.225 2°54.498 12.100927 0.011209 0.068891 -0.477864
2004-03-10 08:30:30 51°21.237 2°54.508 12.108422 0.011209 0.068896 -0.477864
2004-03-10 08:30:36 51°21.254 2°54.523 12.112374 0.011209 0.068902 -0.477864
2004-03-10 08:30:40 51°21.266 2°54.533 12.109058 0.011209 0.068898 -0.477864
2004-03-10 08:30:45 51°21.281 2°54.545 12.11469 0.011209 0.068901 -0.444155
2004-03-10 08:30:50 51°21.296 2°54.557 12.106242 0.011209 0.068896 -0.477864
2004-03-10 08:30:55 51°21.311 2°54.569 12.106242 0.011209 0.068896 -0.477864
2004-03-10 08:31:00 51°21.327 2°54.581 12.114781 0.011209 0.068895 -0.444155
2004-03-10 08:31:06 51°21.345 2°54.596 12.113827 0.011209 0.068896 -0.444155
2004-03-10 08:31:10 51°21.357 2°54.606 12.112374 0.011209 0.068896 -0.511574
2004-03-10 08:31:14 51°21.369 2°54.615 12.110784 0.011209 0.068897 -0.444155
2004-03-10 08:31:20 51°21.387 2°54.63 12.113555 0.011209 0.068901 -0.477864
2004-03-10 08:31:24 51°21.399 2°54.641 12.113555 0.011209 0.068901 -0.477864
2004-03-10 08:31:30 51°21.418 2°54.656 12.1131 0.011209 0.068902 -0.477864
2004-03-10 08:31:36 51°21.435 2°54.67 12.123046 0.011209 0.068903 -0.477864
2004-03-10 08:31:40 51°21.447 2°54.68 12.116688 0.011209 0.068902 -0.477864
2004-03-10 08:31:46 51°21.465 2°54.695 12.115553 0.011209 0.068904 -0.444155
2004-03-10 08:31:50 51°21.477 2°54.705 12.117551 0.011209 0.068907 -0.477864
2004-03-10 08:31:55 51°21.492 2°54.718 12.117551 0.011209 0.068907 -0.477864
2004-03-10 08:32:00 51°21.507 2°54.73 12.114463 0.011209 0.068905 -0.444155
2004-03-10 08:32:06 51°21.525 2°54.744 12.117733 0.011209 0.068906 -0.477864
2004-03-10 08:32:10 51°21.537 2°54.754 12.117233 0.011209 0.068911 -0.477864
2004-03-10 08:32:14 51°21.549 2°54.764 12.126634 0.011209 0.068912 -0.444155
2004-03-10 08:32:20 51°21.567 2°54.779 12.113691 0.011209 0.068908 -0.477864
2004-03-10 08:32:26 51°21.585 2°54.794 12.113691 0.011209 0.068908 -0.477864
2004-03-10 08:32:30 51°21.597 2°54.803 12.131129 0.011209 0.06891 -0.477864
2004-03-10 08:32:36 51°21.615 2°54.818 12.121866 0.011209 0.068908 -0.477864
2004-03-10 08:32:40 51°21.627 2°54.828 12.122728 0.011209 0.068909 -0.444155
2004-03-10 08:32:46 51°21.645 2°54.842 12.124409 0.011209 0.068912 -0.477864
2004-03-10 08:32:50 51°21.657 2°54.852 12.126861 0.011209 0.068917 -0.477864
2004-03-10 08:32:55 51°21.672 2°54.865 12.126861 0.011209 0.068917 -0.477864
2004-03-10 08:33:00 51°21.687 2°54.877 12.130176 0.011209 0.068912 -0.477864
2004-03-10 08:33:06 51°21.705 2°54.891 12.121638 0.011209 0.068915 -0.477864
2004-03-10 08:33:10 51°21.717 2°54.902 12.127451 0.011209 0.068917 -0.477864
2004-03-10 08:33:16 51°21.735 2°54.916 12.129767 0.011209 0.068915 -0.477864
2004-03-10 08:33:20 51°21.747 2°54.926 12.128813 0.011209 0.06892 -0.477864
2004-03-10 08:33:26 51°21.765 2°54.941 12.128813 0.011209 0.06892 -0.477864
2004-03-10 08:33:30 51°21.777 2°54.951 12.137168 0.011209 0.068919 -0.477864
2004-03-10 08:33:36 51°21.795 2°54.966 12.137259 0.011209 0.068919 -0.477864
2004-03-10 08:33:40 51°21.807 2°54.976 12.131084 0.011209 0.068916 -0.477864
2004-03-10 08:33:46 51°21.825 2°54.991 12.140346 0.011209 0.068919 -0.477864
2004-03-10 08:33:50 51°21.837 2°55.001 12.13063 0.011209 0.068914 -0.477864
2004-03-10 08:33:56 51°21.855 2°55.016 12.13063 0.011209 0.068914 -0.477864
2004-03-10 08:34:00 51°21.867 2°55.026 12.137077 0.011209 0.068904 -0.477864
2004-03-10 08:34:05 51°21.882 2°55.038 12.139892 0.011209 0.068907 -0.477864
2004-03-10 08:34:10 51°21.898 2°55.049 12.14829 0.011209 0.068911 -0.477864
2004-03-10 08:34:16 51°21.916 2°55.062 12.128087 0.011209 0.068909 -0.477864
2004-03-10 08:34:20 51°21.928 2°55.071 12.137349 0.011209 0.068904 -0.477864
2004-03-10 08:34:26 51°21.947 2°55.084 12.137349 0.011209 0.068904 -0.477864
2004-03-10 08:34:30 51°21.959 2°55.093 12.137803 0.011209 0.068903 -0.477864
2004-03-10 08:34:34 51°21.971 2°55.102 12.137849 0.011209 0.068902 -0.477864
2004-03-10 08:34:40 51°21.99 2°55.115 12.139846 0.011209 0.068905 -0.477864
2004-03-10 08:34:46 51°22.009 2°55.128 12.140391 0.011209 0.068908 -0.477864
2004-03-10 08:34:50 51°22.021 2°55.137 12.139165 0.011209 0.06891 -0.477864
2004-03-10 08:34:56 51°22.041 2°55.151 12.139165 0.011209 0.06891 -0.477864
2004-03-10 08:35:00 51°22.053 2°55.16 12.138893 0.011209 0.068917 -0.477864
2004-03-10 08:35:06 51°22.072 2°55.173 12.141935 0.011209 0.068914 -0.477864
2004-03-10 08:35:10 51°22.084 2°55.182 12.147246 0.011209 0.068912 -0.477864
2004-03-10 08:35:16 51°22.103 2°55.196 12.140891 0.011209 0.068905 -0.477864
2004-03-10 08:35:20 51°22.115 2°55.205 12.147382 0.011209 0.068898 -0.477864
2004-03-10 08:35:26 51°22.134 2°55.218 12.147382 0.011209 0.068898 -0.477864
2004-03-10 08:35:30 51°22.146 2°55.227 12.143433 0.011209 0.068899 -0.477864
2004-03-10 08:35:36 51°22.165 2°55.24 12.14534 0.011209 0.068901 -0.477864
2004-03-10 08:35:40 51°22.178 2°55.249 12.14711 0.011209 0.068902 -0.477864
2004-03-10 08:35:45 51°22.193 2°55.261 12.151468 0.011209 0.068905 -0.477864
2004-03-10 08:35:50 51°22.209 2°55.272 12.159502 0.011209 0.068908 -0.477864
2004-03-10 08:35:55 51°22.225 2°55.283 12.159502 0.011209 0.068908 -0.477864
2004-03-10 08:36:00 51°22.24 2°55.294 12.149561 0.011209 0.06891 -0.477864
2004-03-10 08:36:04 51°22.253 2°55.304 12.151468 0.011209 0.068912 -0.477864
2004-03-10 08:36:10 51°22.272 2°55.317 12.152603 0.011209 0.068916 -0.477864
2004-03-10 08:36:16 51°22.29 2°55.331 12.151241 0.011209 0.068926 -0.511574
2004-03-10 08:36:20 51°22.303 2°55.34 12.157232 0.011209 0.068924 -0.477864
2004-03-10 08:36:26 51°22.322 2°55.354 12.157232 0.011209 0.068924 -0.477864
2004-03-10 08:36:30 51°22.334 2°55.363 12.162361 0.011209 0.068923 -0.477864
2004-03-10 08:36:36 51°22.353 2°55.376 12.157777 0.011209 0.068926 -0.477864
2004-03-10 08:36:40 51°22.366 2°55.385 12.156143 0.011209 0.068923 -0.477864
2004-03-10 08:36:46 51°22.384 2°55.399 12.157187 0.011209 0.068921 -0.477864
2004-03-10 08:36:50 51°22.396 2°55.409 12.165856 0.011209 0.068919 -0.477864
2004-03-10 08:36:56 51°22.415 2°55.422 12.165856 0.011209 0.068919 -0.477864
2004-03-10 08:37:00 51°22.427 2°55.431 12.166446 0.011209 0.068915 -0.511574
2004-03-10 08:37:06 51°22.446 2°55.444 12.157369 0.011209 0.068909 -0.477864
2004-03-10 08:37:10 51°22.458 2°55.453 12.156415 0.011209 0.068916 -0.477864
2004-03-10 08:37:16 51°22.477 2°55.467 12.169395 0.011209 0.068919 -0.477864
2004-03-10 08:37:20 51°22.49 2°55.476 12.160046 0.011209 0.068922 -0.477864
2004-03-10 08:37:26 51°22.508 2°55.489 12.160046 0.011209 0.068922 -0.477864
2004-03-10 08:37:30 51°22.521 2°55.498 12.16817 0.011209 0.068925 -0.477864
2004-03-10 08:37:36 51°22.539 2°55.512 12.162497 0.011209 0.068922 -0.477864
2004-03-10 08:37:40 51°22.552 2°55.521 12.170938 0.011209 0.068919 -0.477864
2004-03-10 08:37:46 51°22.57 2°55.535 12.161363 0.011209 0.068914 -0.477864
2004-03-10 08:37:50 51°22.582 2°55.544 12.167036 0.011209 0.06892 -0.477864
2004-03-10 08:37:56 51°22.601 2°55.557 12.167036 0.011209 0.06892 -0.477864
2004-03-10 08:38:00 51°22.613 2°55.566 12.164494 0.011209 0.068919 -0.477864
2004-03-10 08:38:06 51°22.632 2°55.58 12.160818 0.011209 0.068915 -0.477864
2004-03-10 08:38:10 51°22.644 2°55.589 12.168125 0.011209 0.068916 -0.477864
2004-03-10 08:38:16 51°22.663 2°55.602 12.170258 0.011209 0.068912 -0.477864
2004-03-10 08:38:20 51°22.675 2°55.611 12.166763 0.011209 0.068908 -0.511574
2004-03-10 08:38:26 51°22.694 2°55.625 12.166763 0.011209 0.068908 -0.511574
2004-03-10 08:38:30 51°22.707 2°55.634 12.170802 0.011209 0.068915 -0.477864
2004-03-10 08:38:35 51°22.723 2°55.645 12.171165 0.011209 0.06892 -0.511574
2004-03-10 08:38:40 51°22.738 2°55.656 12.165493 0.011209 0.068916 -0.511574
2004-03-10 08:38:46 51°22.757 2°55.67 12.177972 0.011209 0.068919 -0.477864
2004-03-10 08:38:50 51°22.77 2°55.679 12.179605 0.011209 0.06892 -0.477864
2004-03-10 08:38:56 51°22.789 2°55.693 12.179605 0.011209 0.06892 -0.477864
2004-03-10 08:39:00 51°22.801 2°55.702 12.173752 0.011209 0.06892 -0.477864
2004-03-10 08:39:05 51°22.817 2°55.713 12.185367 0.011209 0.068922 -0.477864
2004-03-10 08:39:10 51°22.832 2°55.724 12.176883 0.011209 0.06892 -0.477864
2004-03-10 08:39:16 51°22.851 2°55.738 12.181012 0.011209 0.068926 -0.477864
2004-03-10 08:39:20 51°22.863 2°55.747 12.186365 0.011209 0.068921 -0.511574
2004-03-10 08:39:26 51°22.882 2°55.761 12.186365 0.011209 0.068921 -0.511574
2004-03-10 08:39:30 51°22.895 2°55.77 12.179242 0.011209 0.068914 -0.511574
2004-03-10 08:39:36 51°22.913 2°55.783 12.184415 0.011209 0.068908 -0.477864
2004-03-10 08:39:40 51°22.926 2°55.792 12.17475 0.011209 0.068906 -0.477864
2004-03-10 08:39:44 51°22.938 2°55.801 12.188815 0.011209 0.068908 -0.511574
2004-03-10 08:39:50 51°22.957 2°55.815 12.188225 0.011209 0.06891 -0.477864
2004-03-10 08:39:55 51°22.972 2°55.826 12.188225 0.011209 0.06891 -0.477864
2004-03-10 08:40:00 51°22.988 2°55.837 12.18142 0.011209 0.068912 -0.477864
2004-03-10 08:40:06 51°23.007 2°55.851 12.178698 0.011209 0.068912 -0.477864
2004-03-10 08:40:10 51°23.019 2°55.86 12.183099 0.011209 0.06891 -0.477864
2004-03-10 08:40:16 51°23.038 2°55.874 12.187363 0.011209 0.068912 -0.477864
2004-03-10 08:40:20 51°23.05 2°55.883 12.186955 0.011209 0.068915 -0.511574
2004-03-10 08:40:26 51°23.069 2°55.897 12.186955 0.011209 0.068915 -0.511574
2004-03-10 08:40:30 51°23.081 2°55.906 12.186819 0.011209 0.068913 -0.477864
2004-03-10 08:40:34 51°23.094 2°55.915 12.191356 0.011209 0.068917 -0.477864
2004-03-10 08:40:40 51°23.112 2°55.929 12.196935 0.011209 0.068913 -0.477864
2004-03-10 08:40:46 51°23.131 2°55.942 12.189496 0.011209 0.068909 -0.477864
2004-03-10 08:40:50 51°23.143 2°55.952 12.198251 0.011209 0.0689 -0.511574
2004-03-10 08:40:54 51°23.155 2°55.96 12.198251 0.011209 0.0689 -0.511574
2004-03-10 08:41:00 51°23.174 2°55.973 12.18818 0.011209 0.068898 -0.477864
2004-03-10 08:41:04 51°23.187 2°55.982 12.201063 0.011209 0.0689 -0.477864
2004-03-10 08:41:10 51°23.205 2°55.995 12.191084 0.011209 0.0689 -0.477864
2004-03-10 08:41:16 51°23.223 2°56.009 12.198523 0.011209 0.068901 -0.477864
2004-03-10 08:41:20 51°23.235 2°56.018 12.194758 0.011209 0.0689 -0.511574
2004-03-10 08:41:26 51°23.254 2°56.032 12.194758 0.011209 0.0689 -0.511574
2004-03-10 08:41:30 51°23.266 2°56.041 12.197208 0.011209 0.068904 -0.511574
2004-03-10 08:41:36 51°23.285 2°56.054 12.200292 0.011209 0.068905 -0.511574
2004-03-10 08:41:40 51°23.297 2°56.063 12.203467 0.011209 0.068913 -0.511574
2004-03-10 08:41:46 51°23.316 2°56.077 12.202016 0.011209 0.068912 -0.477864
2004-03-10 08:41:50 51°23.328 2°56.086 12.200836 0.011209 0.068913 -0.477864
2004-03-10 08:41:56 51°23.347 2°56.1 12.200836 0.011209 0.068913 -0.477864
2004-03-10 08:42:00 51°23.359 2°56.108 12.197979 0.011209 0.068914 -0.477864
2004-03-10 08:42:06 51°23.378 2°56.122 12.20383 0.011209 0.068914 -0.511574
2004-03-10 08:42:10 51°23.39 2°56.131 12.205871 0.011209 0.068913 -0.477864
2004-03-10 08:42:16 51°23.409 2°56.144 12.202787 0.011209 0.068914 -0.477864
2004-03-10 08:42:20 51°23.421 2°56.153 12.213535 0.011209 0.068911 -0.477864
2004-03-10 08:42:26 51°23.439 2°56.166 12.213535 0.011209 0.068911 -0.477864
2004-03-10 08:42:30 51°23.452 2°56.175 12.204918 0.011209 0.068909 -0.511574
2004-03-10 08:42:36 51°23.47 2°56.188 12.209771 0.011209 0.06891 -0.511574
2004-03-10 08:42:40 51°23.482 2°56.197 12.206188 0.011209 0.068901 -0.511574
2004-03-10 08:42:46 51°23.5 2°56.211 12.209681 0.011209 0.068898 -0.477864
2004-03-10 08:42:50 51°23.512 2°56.219 12.215939 0.011209 0.068895 -0.511574
2004-03-10 08:42:56 51°23.531 2°56.232 12.215939 0.011209 0.068895 -0.511574
2004-03-10 08:43:00 51°23.543 2°56.241 12.206733 0.011209 0.068895 -0.477864
2004-03-10 08:43:06 51°23.561 2°56.254 12.21086 0.011209 0.068899 -0.511574
2004-03-10 08:43:10 51°23.573 2°56.263 12.207957 0.011209 0.068902 -0.511574
2004-03-10 08:43:16 51°23.591 2°56.277 12.213762 0.011209 0.068903 -0.477864
2004-03-10 08:43:20 51°23.604 2°56.286 12.214896 0.011209 0.068906 -0.511574
2004-03-10 08:43:25 51°23.619 2°56.297 12.214896 0.011209 0.068906 -0.511574
2004-03-10 08:43:30 51°23.634 2°56.308 12.214669 0.011209 0.068908 -0.511574
2004-03-10 08:43:36 51°23.652 2°56.321 12.212447 0.011209 0.068904 -0.511574
2004-03-10 08:43:40 51°23.664 2°56.33 12.216302 0.011209 0.068916 -0.477864
2004-03-10 08:43:46 51°23.683 2°56.344 12.222423 0.011209 0.068914 -0.511574
2004-03-10 08:43:50 51°23.695 2°56.353 12.225552 0.011209 0.068916 -0.477864
2004-03-10 08:43:55 51°23.71 2°56.364 12.225552 0.011209 0.068916 -0.477864
2004-03-10 08:44:00 51°23.724 2°56.375 12.228091 0.011209 0.06891 -0.477864
2004-03-10 08:44:06 51°23.742 2°56.389 12.219385 0.011209 0.068906 -0.477864
2004-03-10 08:44:10 51°23.754 2°56.398 12.22265 0.011209 0.068905 -0.477864
2004-03-10 08:44:16 51°23.772 2°56.411 12.22333 0.011209 0.068905 -0.511574
2004-03-10 08:44:20 51°23.784 2°56.42 12.221381 0.011209 0.068904 -0.511574
2004-03-10 08:44:26 51°23.802 2°56.434 12.221381 0.011209 0.068904 -0.511574
2004-03-10 08:44:30 51°23.814 2°56.442 12.228907 0.011209 0.068905 -0.477864
2004-03-10 08:44:35 51°23.829 2°56.454 12.223648 0.011209 0.068899 -0.511574
2004-03-10 08:44:40 51°23.845 2°56.465 12.23258 0.011209 0.068903 -0.477864
2004-03-10 08:44:46 51°23.863 2°56.479 12.221335 0.011209 0.068899 -0.511574
2004-03-10 08:44:50 51°23.875 2°56.488 12.236161 0.011209 0.068901 -0.511574
2004-03-10 08:44:56 51°23.893 2°56.502 12.236161 0.011209 0.068901 -0.511574
2004-03-10 08:45:00 51°23.905 2°56.511 12.228182 0.011209 0.068901 -0.477864
2004-03-10 08:45:06 51°23.922 2°56.524 12.226187 0.011209 0.068898 -0.511574
2004-03-10 08:45:10 51°23.934 2°56.533 12.227774 0.011209 0.0689 -0.511574
2004-03-10 08:45:15 51°23.949 2°56.544 12.236977 0.011209 0.068896 -0.511574
2004-03-10 08:45:20 51°23.964 2°56.556 12.232081 0.011209 0.068896 -0.511574
2004-03-10 08:45:25 51°23.979 2°56.567 12.232081 0.011209 0.068896 -0.511574
2004-03-10 08:45:30 51°23.994 2°56.579 12.229814 0.011209 0.068892 -0.511574
2004-03-10 08:45:36 51°24.012 2°56.591 12.237204 0.011209 0.068888 -0.511574
2004-03-10 08:45:40 51°24.024 2°56.601 12.232806 0.011209 0.068903 -0.477864
2004-03-10 08:45:46 51°24.042 2°56.614 12.235617 0.011209 0.068903 -0.511574
2004-03-10 08:45:50 51°24.054 2°56.623 12.24423 0.011209 0.068902 -0.477864
2004-03-10 08:45:56 51°24.072 2°56.637 12.24423 0.011209 0.068902 -0.477864
2004-03-10 08:46:00 51°24.084 2°56.646 12.234121 0.011209 0.068898 -0.511574
2004-03-10 08:46:05 51°24.099 2°56.657 12.239969 0.011209 0.06889 -0.511574
2004-03-10 08:46:09 51°24.111 2°56.666 12.241193 0.011209 0.068889 -0.511574
2004-03-10 08:46:15 51°24.129 2°56.679 12.244502 0.011209 0.068885 -0.511574
2004-03-10 08:46:20 51°24.144 2°56.69 12.237068 0.011209 0.06888 -0.511574
2004-03-10 08:46:25 51°24.159 2°56.701 12.237068 0.011209 0.06888 -0.511574
2004-03-10 08:46:29 51°24.171 2°56.71 12.241556 0.011209 0.068882 -0.511574
2004-03-10 08:46:35 51°24.189 2°56.724 12.24074 0.011209 0.068887 -0.511574
2004-03-10 08:46:39 51°24.201 2°56.733 12.244638 0.011209 0.068888 -0.511574
2004-03-10 08:46:45 51°24.22 2°56.745 12.243006 0.011209 0.068888 -0.511574
2004-03-10 08:46:50 51°24.235 2°56.757 12.247766 0.011209 0.068886 -0.511574
2004-03-10 08:46:55 51°24.25 2°56.768 12.247766 0.011209 0.068886 -0.511574
2004-03-10 08:46:59 51°24.262 2°56.777 12.243142 0.011209 0.068888 -0.511574
2004-03-10 08:47:04 51°24.278 2°56.789 12.248446 0.011209 0.068883 -0.511574
2004-03-10 08:47:09 51°24.293 2°56.8 12.251528 0.011209 0.068879 -0.511574
2004-03-10 08:47:16 51°24.314 2°56.816 12.246406 0.011209 0.068879 -0.511574
2004-03-10 08:47:19 51°24.323 2°56.822 12.251029 0.011209 0.068882 -0.511574
2004-03-10 08:47:23 51°24.335 2°56.831 12.251029 0.011209 0.068882 -0.511574
2004-03-10 08:47:29 51°24.353 2°56.844 12.247313 0.011209 0.068882 -0.477864
2004-03-10 08:47:33 51°24.365 2°56.853 12.252933 0.011209 0.068887 -0.511574
2004-03-10 08:47:39 51°24.383 2°56.866 12.259096 0.011209 0.068888 -0.477864
2004-03-10 08:47:45 51°24.401 2°56.879 12.25461 0.011209 0.068888 -0.511574
2004-03-10 08:47:49 51°24.413 2°56.887 12.252797 0.011209 0.068889 -0.511574
2004-03-10 08:47:56 51°24.435 2°56.9 12.252797 0.011209 0.068889 -0.511574
2004-03-10 08:47:59 51°24.444 2°56.906 12.256876 0.011209 0.06889 -0.511574
2004-03-10 08:48:05 51°24.463 2°56.919 12.251029 0.011209 0.068893 -0.511574
2004-03-10 08:48:10 51°24.478 2°56.929 12.252344 0.011209 0.068895 -0.511574
2004-03-10 08:48:13 51°24.487 2°56.935 12.25955 0.011209 0.068886 -0.511574
2004-03-10 08:48:20 51°24.508 2°56.95 12.263673 0.011209 0.068875 -0.511574
2004-03-10 08:48:23 51°24.517 2°56.956 12.263673 0.011209 0.068875 -0.511574
2004-03-10 08:48:29 51°24.535 2°56.967 12.265124 0.011209 0.068879 -0.511574
2004-03-10 08:48:35 51°24.554 2°56.979 12.259414 0.011209 0.06888 -0.545283
2004-03-10 08:48:39 51°24.566 2°56.987 12.258371 0.011209 0.068885 -0.511574
2004-03-10 08:48:45 51°24.585 2°56.999 12.260683 0.011209 0.068889 -0.511574
2004-03-10 08:48:50 51°24.6 2°57.01 12.260411 0.011209 0.068888 -0.477864
2004-03-10 08:48:55 51°24.616 2°57.02 12.260411 0.011209 0.068888 -0.477864
2004-03-10 08:49:00 51°24.631 2°57.029 12.265713 0.011209 0.068882 -0.511574
2004-03-10 08:49:06 51°24.65 2°57.041 12.267933 0.011209 0.068881 -0.511574
2004-03-10 08:49:09 51°24.659 2°57.047 12.262994 0.011209 0.06888 -0.511574
2004-03-10 08:49:13 51°24.672 2°57.055 12.271059 0.011209 0.068881 -0.545283
2004-03-10 08:49:19 51°24.691 2°57.066 12.264398 0.011209 0.068882 -0.511574
2004-03-10 08:49:26 51°24.712 2°57.08 12.264398 0.011209 0.068882 -0.511574
2004-03-10 08:49:30 51°24.725 2°57.089 12.266438 0.011209 0.068885 -0.511574
2004-03-10 08:49:36 51°24.743 2°57.102 12.267661 0.011209 0.06888 -0.511574
2004-03-10 08:49:40 51°24.755 2°57.11 12.275545 0.011209 0.068881 -0.511574
2004-03-10 08:49:46 51°24.773 2°57.122 12.272872 0.011209 0.06888 -0.511574
2004-03-10 08:49:50 51°24.786 2°57.13 12.277357 0.011209 0.068881 -0.511574
2004-03-10 08:49:56 51°24.804 2°57.142 12.277357 0.011209 0.068881 -0.511574
2004-03-10 08:50:00 51°24.816 2°57.15 12.271059 0.011209 0.068882 -0.511574
2004-03-10 08:50:06 51°24.835 2°57.163 12.273325 0.011209 0.068893 -0.511574
2004-03-10 08:50:10 51°24.847 2°57.171 12.276043 0.011209 0.068898 -0.545283
2004-03-10 08:50:14 51°24.86 2°57.179 12.274956 0.011209 0.068892 -0.511574
2004-03-10 08:50:20 51°24.878 2°57.191 12.276859 0.011209 0.06889 -0.511574
2004-03-10 08:50:26 51°24.896 2°57.203 12.276859 0.011209 0.06889 -0.511574
2004-03-10 08:50:30 51°24.908 2°57.212 12.278399 0.011209 0.068882 -0.511574
2004-03-10 08:50:35 51°24.923 2°57.221 12.283836 0.011209 0.068882 -0.511574
2004-03-10 08:50:40 51°24.939 2°57.232 12.278762 0.011209 0.068877 -0.511574
2004-03-10 08:50:45 51°24.954 2°57.241 12.28148 0.011209 0.068882 -0.511574
2004-03-10 08:50:50 51°24.97 2°57.252 12.283156 0.011209 0.068886 -0.511574
2004-03-10 08:50:55 51°24.985 2°57.262 12.283156 0.011209 0.068886 -0.511574
2004-03-10 08:50:59 51°24.997 2°57.27 12.278218 0.011209 0.068888 -0.545283
2004-03-10 08:51:05 51°25.015 2°57.282 12.290767 0.011209 0.068887 -0.511574
2004-03-10 08:51:10 51°25.029 2°57.292 12.281435 0.011209 0.068882 -0.511574
2004-03-10 08:51:15 51°25.045 2°57.302 12.28823 0.011209 0.068882 -0.511574
2004-03-10 08:51:20 51°25.06 2°57.312 12.284017 0.011209 0.068886 -0.511574
2004-03-10 08:51:25 51°25.075 2°57.323 12.284017 0.011209 0.068886 -0.511574
2004-03-10 08:51:30 51°25.09 2°57.332 12.286418 0.011209 0.06888 -0.511574
2004-03-10 08:51:35 51°25.106 2°57.343 12.288456 0.011209 0.068879 -0.511574
2004-03-10 08:51:39 51°25.118 2°57.351 12.292669 0.011209 0.068883 -0.511574
2004-03-10 08:51:46 51°25.139 2°57.366 12.290178 0.011209 0.068881 -0.511574
2004-03-10 08:51:49 51°25.148 2°57.373 12.290767 0.011209 0.068883 -0.511574
2004-03-10 08:51:56 51°25.17 2°57.388 12.290767 0.011209 0.068883 -0.511574
2004-03-10 08:52:00 51°25.182 2°57.396 12.291401 0.011209 0.068885 -0.477864
2004-03-10 08:52:06 51°25.199 2°57.409 12.296474 0.011209 0.068885 -0.511574
2004-03-10 08:52:09 51°25.208 2°57.415 12.299191 0.011209 0.06888 -0.511574
2004-03-10 08:52:16 51°25.229 2°57.429 12.294164 0.011209 0.06888 -0.511574
2004-03-10 08:52:19 51°25.238 2°57.435 12.29824 0.011209 0.068881 -0.511574
2004-03-10 08:52:25 51°25.257 2°57.448 12.29824 0.011209 0.068881 -0.511574
2004-03-10 08:52:30 51°25.272 2°57.458 12.293666 0.011209 0.068881 -0.477864
2004-03-10 08:52:35 51°25.287 2°57.468 12.296927 0.011209 0.068878 -0.511574
2004-03-10 08:52:40 51°25.302 2°57.479 12.29824 0.011209 0.068881 -0.511574
2004-03-10 08:52:43 51°25.311 2°57.485 12.300641 0.011209 0.068872 -0.511574
2004-03-10 08:52:50 51°25.332 2°57.5 12.301003 0.011209 0.068874 -0.477864
2004-03-10 08:52:56 51°25.351 2°57.513 12.301003 0.011209 0.068874 -0.477864
2004-03-10 08:53:00 51°25.363 2°57.521 12.2967 0.011209 0.068868 -0.511574
2004-03-10 08:53:06 51°25.381 2°57.534 12.306573 0.011209 0.068868 -0.511574
2004-03-10 08:53:10 51°25.393 2°57.542 12.304762 0.011209 0.068867 -0.511574
2004-03-10 08:53:16 51°25.411 2°57.554 12.303901 0.011209 0.068871 -0.511574
2004-03-10 08:53:20 51°25.424 2°57.563 12.308974 0.011209 0.068874 -0.511574
2004-03-10 08:53:26 51°25.442 2°57.576 12.308974 0.011209 0.068874 -0.511574
2004-03-10 08:53:30 51°25.455 2°57.585 12.305622 0.011209 0.068871 -0.511574
2004-03-10 08:53:36 51°25.473 2°57.597 12.304898 0.011209 0.068874 -0.545283
2004-03-10 08:53:40 51°25.485 2°57.606 12.307796 0.011209 0.068886 -0.545283
2004-03-10 08:53:46 51°25.504 2°57.619 12.310423 0.011209 0.068892 -0.511574
2004-03-10 08:53:50 51°25.516 2°57.628 12.308883 0.011209 0.068893 -0.511574
2004-03-10 08:53:56 51°25.535 2°57.64 12.308883 0.011209 0.068893 -0.511574
2004-03-10 08:54:00 51°25.547 2°57.648 12.316038 0.011209 0.068893 -0.511574
2004-03-10 08:54:06 51°25.565 2°57.661 12.315177 0.011209 0.068896 -0.545283
2004-03-10 08:54:10 51°25.577 2°57.67 12.317441 0.011209 0.068901 -0.511574
2004-03-10 08:54:16 51°25.595 2°57.682 12.314181 0.011209 0.068891 -0.511574
2004-03-10 08:54:20 51°25.607 2°57.69 12.318437 0.011209 0.068887 -0.511574
2004-03-10 08:54:26 51°25.625 2°57.703 12.318437 0.011209 0.068887 -0.511574
2004-03-10 08:54:30 51°25.637 2°57.711 12.316038 0.011209 0.068885 -0.511574
2004-03-10 08:54:36 51°25.656 2°57.724 12.31554 0.011209 0.068884 -0.511574
2004-03-10 08:54:40 51°25.668 2°57.732 12.318166 0.011209 0.068884 -0.545283
2004-03-10 08:54:46 51°25.686 2°57.745 12.319479 0.011209 0.068886 -0.511574
2004-03-10 08:54:50 51°25.699 2°57.754 12.321562 0.011209 0.068887 -0.511574
2004-03-10 08:54:56 51°25.717 2°57.767 12.321562 0.011209 0.068887 -0.511574
2004-03-10 08:55:00 51°25.729 2°57.775 12.319388 0.011209 0.068887 -0.511574
2004-03-10 08:55:06 51°25.748 2°57.788 12.321924 0.011209 0.068886 -0.511574
2004-03-10 08:55:10 51°25.76 2°57.797 12.322603 0.011209 0.068883 -0.511574
2004-03-10 08:55:15 51°25.775 2°57.807 12.323599 0.011209 0.068885 -0.545283
2004-03-10 08:55:20 51°25.791 2°57.818 12.329892 0.011209 0.068887 -0.545283
2004-03-10 08:55:26 51°25.809 2°57.832 12.329892 0.011209 0.068887 -0.545283
2004-03-10 08:55:30 51°25.822 2°57.84 12.328262 0.011209 0.068881 -0.511574
2004-03-10 08:55:36 51°25.84 2°57.853 12.32962 0.011209 0.068877 -0.511574
2004-03-10 08:55:40 51°25.852 2°57.861 12.334147 0.011209 0.068876 -0.545283
2004-03-10 08:55:46 51°25.87 2°57.874 12.333921 0.011209 0.068868 -0.545283
2004-03-10 08:55:50 51°25.882 2°57.882 12.333332 0.011209 0.068866 -0.545283
2004-03-10 08:55:56 51°25.9 2°57.895 12.333332 0.011209 0.068866 -0.545283
2004-03-10 08:56:00 51°25.912 2°57.903 12.33727 0.011209 0.068858 -0.545283
2004-03-10 08:56:06 51°25.93 2°57.916 12.330073 0.011209 0.068856 -0.545283
2004-03-10 08:56:10 51°25.943 2°57.924 12.333423 0.011209 0.068855 -0.511574
2004-03-10 08:56:16 51°25.961 2°57.938 12.335686 0.011209 0.068858 -0.545283
2004-03-10 08:56:20 51°25.973 2°57.946 12.335143 0.011209 0.068865 -0.511574
2004-03-10 08:56:25 51°25.988 2°57.957 12.335143 0.011209 0.068865 -0.511574
2004-03-10 08:56:30 51°26.003 2°57.968 12.334509 0.011209 0.068865 -0.545283
2004-03-10 08:56:36 51°26.021 2°57.981 12.339353 0.011209 0.068872 -0.511574
2004-03-10 08:56:40 51°26.033 2°57.99 12.338764 0.011209 0.068869 -0.545283
2004-03-10 08:56:46 51°26.052 2°58.002 12.344603 0.011209 0.068869 -0.545283
2004-03-10 08:56:50 51°26.064 2°58.011 12.339443 0.011209 0.068869 -0.511574
2004-03-10 08:56:55 51°26.079 2°58.022 12.339443 0.011209 0.068869 -0.511574
2004-03-10 08:57:00 51°26.094 2°58.033 12.340167 0.011209 0.068873 -0.511574
2004-03-10 08:57:06 51°26.112 2°58.046 12.341752 0.011209 0.068869 -0.511574
2004-03-10 08:57:10 51°26.123 2°58.055 12.34845 0.011209 0.068863 -0.545283
2004-03-10 08:57:16 51°26.141 2°58.068 12.344422 0.011209 0.068856 -0.545283
2004-03-10 08:57:20 51°26.153 2°58.076 12.347545 0.011209 0.068855 -0.511574
2004-03-10 08:57:25 51°26.168 2°58.087 12.347545 0.011209 0.068855 -0.511574
2004-03-10 08:57:30 51°26.182 2°58.098 12.345689 0.011209 0.068855 -0.511574
2004-03-10 08:57:36 51°26.201 2°58.111 12.343381 0.011209 0.068856 -0.511574
2004-03-10 08:57:40 51°26.212 2°58.12 12.352206 0.011209 0.068853 -0.511574
2004-03-10 08:57:46 51°26.23 2°58.133 12.346911 0.011209 0.068859 -0.511574
2004-03-10 08:57:50 51°26.242 2°58.142 12.352342 0.011209 0.068861 -0.511574
2004-03-10 08:57:55 51°26.256 2°58.153 12.352342 0.011209 0.068861 -0.511574
2004-03-10 08:58:00 51°26.272 2°58.164 12.353428 0.011209 0.068856 -0.545283
2004-03-10 08:58:06 51°26.29 2°58.176 12.350441 0.011209 0.068858 -0.511574
2004-03-10 08:58:10 51°26.302 2°58.185 12.354017 0.011209 0.068862 -0.511574
2004-03-10 08:58:16 51°26.32 2°58.197 12.352614 0.011209 0.068861 -0.511574
2004-03-10 08:58:20 51°26.332 2°58.206 12.352523 0.011209 0.068864 -0.511574
2004-03-10 08:58:24 51°26.344 2°58.214 12.352523 0.011209 0.068864 -0.511574
2004-03-10 08:58:30 51°26.362 2°58.227 12.358135 0.011209 0.068866 -0.545283
2004-03-10 08:58:36 51°26.38 2°58.241 12.361438 0.011209 0.06886 -0.545283
2004-03-10 08:58:40 51°26.392 2°58.25 12.358587 0.011209 0.068871 -0.511574
2004-03-10 08:58:46 51°26.41 2°58.262 12.360895 0.011209 0.068867 -0.511574
2004-03-10 08:58:50 51°26.422 2°58.271 12.359718 0.011209 0.068869 -0.511574
2004-03-10 08:58:55 51°26.437 2°58.282 12.359718 0.011209 0.068869 -0.511574
2004-03-10 08:59:00 51°26.452 2°58.293 12.365601 0.011209 0.068867 -0.545283
2004-03-10 08:59:06 51°26.47 2°58.305 12.364379 0.011209 0.068867 -0.545283
2004-03-10 08:59:10 51°26.482 2°58.314 12.363791 0.011209 0.068865 -0.511574
2004-03-10 08:59:16 51°26.5 2°58.328 12.366777 0.011209 0.068864 -0.545283
2004-03-10 08:59:20 51°26.511 2°58.337 12.370396 0.011209 0.068864 -0.511574
2004-03-10 08:59:26 51°26.529 2°58.351 12.370396 0.011209 0.068864 -0.511574
2004-03-10 08:59:30 51°26.541 2°58.36 12.365917 0.011209 0.068864 -0.511574
2004-03-10 08:59:35 51°26.556 2°58.372 12.371075 0.011209 0.068861 -0.545283
2004-03-10 08:59:40 51°26.57 2°58.384 7.051292 0.011209 0.068844 -0.545283
2004-03-10 08:59:46 51°26.587 2°58.399 6.322251 0.011209 0.068834 -0.477864
2004-03-10 08:59:50 51°26.599 2°58.408 5.622807 3.101817 24.912457 15.06217
2004-03-10 08:59:56 51°26.617 2°58.422 5.622807 3.101817 24.912457 15.06217
2004-03-10 09:00:00 51°26.629 2°58.432 5.481753 3.474236 29.40851 10.679947
2004-03-10 09:00:06 51°26.646 2°58.446 5.35163 3.36092 30.558313 7.511264
2004-03-10 09:00:10 51°26.658 2°58.456 5.313645 3.241399 30.848684 6.634819
2004-03-10 09:00:16 51°26.676 2°58.47 5.292953 3.184334 31.151331 6.735947
2004-03-10 09:00:20 51°26.688 2°58.479 5.285886 3.229096 32.267099 6.095469
2004-03-10 09:00:26 51°26.705 2°58.493 5.285886 3.229096 32.267099 6.095469
2004-03-10 09:00:30 51°26.717 2°58.502 5.262307 3.192136 32.162597 5.758375
2004-03-10 09:00:35 51°26.732 2°58.514 5.226896 3.163181 32.000397 5.657247
2004-03-10 09:00:40 51°26.746 2°58.525 5.236546 3.151073 31.968861 5.387571
2004-03-10 09:00:46 51°26.764 2°58.539 5.233212 3.143387 31.945811 5.589828
2004-03-10 09:00:50 51°26.775 2°58.549 5.249226 3.136543 31.919837 5.556118
2004-03-10 09:00:56 51°26.793 2°58.563 5.249226 3.136543 31.919837 5.556118
2004-03-10 09:01:00 51°26.804 2°58.573 5.26968 3.107694 31.631888 5.623537
2004-03-10 09:01:06 51°26.822 2°58.587 5.256247 3.11896 31.78506 5.926922
2004-03-10 09:01:10 51°26.833 2°58.597 5.266599 3.103799 31.641995 5.724665
2004-03-10 09:01:15 51°26.848 2°58.609 5.257711 3.128437 31.925789 5.825794
2004-03-10 09:01:20 51°26.862 2°58.62 5.261246 3.128226 31.920931 5.994341
2004-03-10 09:01:26 51°26.88 2°58.635 5.261246 3.128226 31.920931 5.994341
2004-03-10 09:01:30 51°26.891 2°58.645 5.272103 3.129279 31.936128 6.230306
2004-03-10 09:01:35 51°26.905 2°58.656 5.276547 3.130542 31.95288 6.331435
2004-03-10 09:01:40 51°26.919 2°58.668 5.262357 3.132122 31.973204 6.533691
2004-03-10 09:01:44 51°26.931 2°58.677 5.26367 3.133807 32.003841 6.971913
2004-03-10 09:01:50 51°26.948 2°58.692 5.263165 3.135281 32.02631 7.342717
2004-03-10 09:01:56 51°26.965 2°58.705 5.263165 3.135281 32.02631 7.342717
2004-03-10 09:02:00 51°26.977 2°58.715 5.262307 3.135597 32.030711 7.443845
2004-03-10 09:02:06 51°26.994 2°58.729 5.258267 3.136755 32.042975 7.612392
2004-03-10 09:02:10 51°27.006 2°58.738 5.271598 3.137387 32.056764 7.646101
2004-03-10 09:02:15 51°27.02 2°58.75 5.268013 3.137913 32.069367 7.544973
2004-03-10 09:02:20 51°27.035 2°58.762 5.264175 3.112433 31.782166 7.949486
2004-03-10 09:02:25 51°27.049 2°58.774 5.264175 3.112433 31.782166 7.949486
2004-03-10 09:02:30 51°27.064 2°58.787 5.259327 3.140019 32.102344 8.016905
2004-03-10 09:02:36 51°27.081 2°58.801 5.266801 3.139914 32.10032 8.016905
2004-03-10 09:02:40 51°27.093 2°58.812 5.259226 3.140335 32.105085 8.050614
2004-03-10 09:02:45 51°27.107 2°58.825 5.26569 3.141599 32.118549 8.219161
2004-03-10 09:02:51 51°27.124 2°58.841 5.262256 3.141493 32.121523 8.185452
2004-03-10 09:02:56 51°27.138 2°58.855 5.262256 3.141493 32.121523 8.185452
2004-03-10 09:03:00 51°27.149 2°58.866 5.265539 3.14202 32.132482 8.353999
2004-03-10 09:03:06 51°27.166 2°58.881 5.281292 3.141599 32.129382 8.421418
2004-03-10 09:03:10 51°27.177 2°58.892 5.269629 3.142231 32.137367 8.994477
2004-03-10 09:03:16 51°27.193 2°58.908 5.269882 3.142125 32.13951 8.927059
2004-03-10 09:03:20 51°27.204 2°58.92 5.28205 3.142336 32.141894 8.994477
2004-03-10 09:03:26 51°27.221 2°58.936 5.28205 3.142336 32.141894 8.994477
2004-03-10 09:03:30 51°27.231 2°58.947 5.277405 3.14202 32.138318 8.960768
2004-03-10 09:03:36 51°27.248 2°58.963 5.267912 3.142547 32.14261 8.893349
2004-03-10 09:03:40 51°27.259 2°58.974 5.273719 3.142547 32.14261 8.960768
2004-03-10 09:03:46 51°27.275 2°58.991 5.27483 3.143073 32.146902 9.533828
2004-03-10 09:03:50 51°27.286 2°59.001 5.269932 3.142968 32.148213 8.724802
2004-03-10 09:03:56 51°27.303 2°59.018 5.269932 3.142968 32.148213 8.724802
2004-03-10 09:04:00 51°27.314 2°59.028 5.275587 3.143915 32.161445 8.994477
2004-03-10 09:04:06 51°27.33 2°59.045 5.279475 3.14381 32.162756 9.061896
2004-03-10 09:04:10 51°27.341 2°59.055 5.268821 3.144758 32.173487 9.028187
2004-03-10 09:04:16 51°27.358 2°59.072 5.275082 3.144652 32.172295 8.960768
2004-03-10 09:04:20 51°27.369 2°59.083 5.284473 3.144547 32.171938 9.466409
2004-03-10 09:04:26 51°27.385 2°59.099 5.284473 3.144547 32.171938 9.466409
2004-03-10 09:04:30 51°27.396 2°59.109 5.274173 3.144758 32.174322 9.297862
2004-03-10 09:04:36 51°27.412 2°59.126 5.268165 3.1456 32.188038 9.4327
2004-03-10 09:04:40 51°27.423 2°59.136 5.265589 3.145495 32.187681 9.601247
2004-03-10 09:04:44 51°27.435 2°59.147 5.270084 3.145705 32.188395 9.095606
2004-03-10 09:04:50 51°27.451 2°59.164 5.271901 3.146021 32.19448 9.230443
2004-03-10 09:04:55 51°27.464 2°59.178 5.271901 3.146021 32.19448 9.230443
2004-03-10 09:05:00 51°27.477 2°59.195 5.270942 3.146232 32.197701 9.365281
2004-03-10 09:05:06 51°27.492 2°59.215 5.274628 3.146337 32.203074 9.230443
2004-03-10 09:05:10 51°27.501 2°59.23 5.272861 3.146127 32.199852 9.061896
2004-03-10 09:05:16 51°27.515 2°59.252 5.274527 3.146443 32.202594 8.994477
2004-03-10 09:05:20 51°27.524 2°59.267 5.266549 3.146653 32.20498 9.129315
2004-03-10 09:05:26 51°27.537 2°59.29 5.266549 3.146653 32.20498 9.129315
2004-03-10 09:05:30 51°27.546 2°59.305 5.270437 3.146232 32.200209 9.196734